Time,TemperatureF,DewpointF,PressureIn,WindDirection,WindDirectionDegrees,WindSpeedMPH,WindSpeedGustMPH,Humidity,HourlyPrecipIn,Conditions,Clouds,dailyrainin,SolarRadiationWatts/m^2,SoftwareType,DateUTC
2013-02-23 00:00:00,34.3,33.5,30.25,NE,49,2.0,5.0,97,0.00,RA,OVC,0.00,0.0,WeatherDisplay:10.37,2013-02-23 05:00:00,
2013-02-23 00:02:00,34.3,33.5,30.25,NE,49,3.6,5.0,97,0.00,RA,OVC,0.00,0.0,WeatherDisplay:10.37,2013-02-23 05:02:00,
2013-02-23 00:05:00,34.3,33.5,30.24,NE,49,3.1,3.5,97,0.00,RA,OVC,0.00,0.0,WeatherDisplay:10.37,2013-02-23 05:05:00,
2013-02-23 00:06:00,34.3,33.5,30.24,NE,49,3.0,3.5,97,0.00,RA,OVC,0.00,0.0,WeatherDisplay:10.37,2013-02-23 05:06:00,
2013-02-23 00:07:00,34.3,33.5,30.24,NE,49,2.9,3.5,97,0.00,RA,OVC,0.00,0.0,WeatherDisplay:10.37,2013-02-23 05:07:00,
2013-02-23 00:09:00,34.3,33.5,30.24,NE,49,2.1,3.5,97,0.00,RA,OVC,0.00,0.0,WeatherDisplay:10.37,2013-02-23 05:09:00,
2013-02-23 00:11:00,34.3,33.5,30.24,NE,49,3.0,5.0,97,0.00,,OVC,0.00,0.0,WeatherDisplay:10.37,2013-02-23 05:11:00,
2013-02-23 00:13:00,34.3,33.5,30.24,NE,49,3.1,4.6,97,0.00,,OVC,0.00,0.0,WeatherDisplay:10.37,2013-02-23 05:13:00,
2013-02-23 00:15:00,34.3,33.5,30.24,NE,49,2.9,3.5,97,0.00,,OVC,0.00,0.0,WeatherDisplay:10.37,2013-02-23 05:15:00,
2013-02-23 00:16:00,34.3,33.5,30.24,NE,49,3.4,3.5,97,0.00,,OVC,0.00,0.0,WeatherDisplay:10.37,2013-02-23 05:16:00,
2013-02-23 00:18:00,34.3,33.5,30.24,NE,49,2.3,3.5,97,0.00,,OVC,0.00,0.0,WeatherDisplay:10.37,2013-02-23 05:18:00,
2013-02-23 00:20:00,34.3,33.5,30.24,NE,49,0.3,3.5,97,0.00,,OVC,0.00,0.0,WeatherDisplay:10.37,2013-02-23 05:20:00,
2013-02-23 00:21:00,34.3,33.5,30.24,NE,49,0.0,0.0,97,0.00,,OVC,0.00,0.0,WeatherDisplay:10.37,2013-02-23 05:21:00,
2013-02-23 00:22:00,34.3,33.5,30.24,NE,49,0.0,0.0,97,0.00,,OVC,0.00,0.0,WeatherDisplay:10.37,2013-02-23 05:22:00,
2013-02-23 00:23:00,34.3,33.5,30.24,NE,49,0.0,0.0,97,0.00,,OVC,0.00,0.0,WeatherDisplay:10.37,2013-02-23 05:23:00,
2013-02-23 00:25:00,34.3,33.5,30.24,NE,49,0.0,0.0,97,0.00,,OVC,0.00,0.0,WeatherDisplay:10.37,2013-02-23 05:25:00,
2013-02-23 00:28:00,34.3,33.5,30.24,NE,49,0.0,0.0,97,0.00,,OVC,0.00,0.0,WeatherDisplay:10.37,2013-02-23 05:28:00,
2013-02-23 00:30:00,34.3,33.8,30.24,NE,49,0.0,4.0,98,0.00,,OVC,0.00,0.0,WeatherDisplay:10.37,2013-02-23 05:30:00,
2013-02-23 00:31:00,34.3,33.8,30.24,NE,49,2.6,4.0,98,0.00,,OVC,0.00,0.0,WeatherDisplay:10.37,2013-02-23 05:31:00,
2013-02-23 00:34:00,34.3,33.5,30.23,NE,49,2.4,3.5,97,0.00,,OVC,0.00,0.0,WeatherDisplay:10.37,2013-02-23 05:34:00,
2013-02-23 00:36:00,34.3,33.5,30.23,NE,49,1.2,3.5,97,0.00,,OVC,0.00,0.0,WeatherDisplay:10.37,2013-02-23 05:36:00,
2013-02-23 00:37:00,34.3,33.5,30.23,NE,49,0.0,0.0,97,0.00,,OVC,0.00,0.0,WeatherDisplay:10.37,2013-02-23 05:37:00,
2013-02-23 00:41:00,34.4,33.9,30.23,NE,49,0.0,2.3,98,0.00,,OVC,0.00,0.0,WeatherDisplay:10.37,2013-02-23 05:41:00,
2013-02-23 00:43:00,34.4,33.9,30.23,NE,49,0.0,0.0,98,0.00,,OVC,0.00,0.0,WeatherDisplay:10.37,2013-02-23 05:43:00,
2013-02-23 00:47:00,34.6,34.1,30.23,NE,49,0.0,0.0,98,0.00,,OVC,0.00,0.0,WeatherDisplay:10.37,2013-02-23 05:47:00,
2013-02-23 00:48:00,34.6,34.1,30.23,NE,49,0.0,0.0,98,0.00,,OVC,0.00,0.0,WeatherDisplay:10.37,2013-02-23 05:48:00,
2013-02-23 00:49:00,34.6,34.1,30.24,NE,49,0.0,0.0,98,0.00,,OVC,0.00,0.0,WeatherDisplay:10.37,2013-02-23 05:49:00,
2013-02-23 00:51:00,34.6,34.1,30.24,NE,49,0.0,0.0,98,0.00,,OVC,0.00,0.0,WeatherDisplay:10.37,2013-02-23 05:51:00,
2013-02-23 00:52:00,34.6,34.1,30.24,NE,49,0.0,0.0,98,0.00,,OVC,0.00,0.0,WeatherDisplay:10.37,2013-02-23 05:52:00,
2013-02-23 00:55:00,34.7,34.2,30.24,NE,49,0.0,0.0,98,0.00,,OVC,0.00,0.0,WeatherDisplay:10.37,2013-02-23 05:55:00,
2013-02-23 00:56:00,34.7,34.2,30.24,NE,49,0.0,0.0,98,0.00,,OVC,0.00,0.0,WeatherDisplay:10.37,2013-02-23 05:56:00,
2013-02-23 00:58:00,34.7,34.2,30.24,NE,49,0.0,1.0,98,0.00,,OVC,0.00,0.0,WeatherDisplay:10.37,2013-02-23 05:58:00,
2013-02-23 01:00:00,34.6,34.1,30.24,NE,49,2.0,3.0,98,0.00,,OVC,0.00,0.0,WeatherDisplay:10.37,2013-02-23 06:00:00,
2013-02-23 01:01:00,34.6,34.1,30.24,NE,49,2.3,3.5,98,0.00,,OVC,0.00,0.0,WeatherDisplay:10.37,2013-02-23 06:01:00,
2013-02-23 01:02:00,34.6,34.1,30.24,NE,49,2.6,3.5,98,0.00,,OVC,0.00,0.0,WeatherDisplay:10.37,2013-02-23 06:02:00,
2013-02-23 01:04:00,34.6,34.1,30.25,NE,49,2.9,3.5,98,0.00,,OVC,0.00,0.0,WeatherDisplay:10.37,2013-02-23 06:04:00,
2013-02-23 01:05:00,34.6,34.1,30.25,NE,49,3.5,5.0,98,0.00,,OVC,0.00,0.0,WeatherDisplay:10.37,2013-02-23 06:05:00,
2013-02-23 01:06:00,34.6,34.1,30.25,NE,49,4.1,5.0,98,0.00,,OVC,0.00,0.0,WeatherDisplay:10.37,2013-02-23 06:06:00,
2013-02-23 01:07:00,34.6,34.3,30.25,NE,49,3.3,5.0,99,0.00,,OVC,0.00,0.0,WeatherDisplay:10.37,2013-02-23 06:07:00,
2013-02-23 01:10:00,34.6,34.1,30.25,NE,49,4.5,4.6,98,0.00,,OVC,0.00,0.0,WeatherDisplay:10.37,2013-02-23 06:10:00,
2013-02-23 01:11:00,34.6,34.1,30.25,NNE,33,4.0,5.8,98,0.00,,OVC,0.00,0.0,WeatherDisplay:10.37,2013-02-23 06:11:00,
2013-02-23 01:12:00,34.6,34.1,30.25,NNE,33,3.5,5.8,98,0.00,,OVC,0.00,0.0,WeatherDisplay:10.37,2013-02-23 06:12:00,
2013-02-23 01:14:00,34.4,33.9,30.25,NNE,33,3.9,5.0,98,0.00,,OVC,0.00,0.0,WeatherDisplay:10.37,2013-02-23 06:14:00,
2013-02-23 01:15:00,34.4,33.9,30.25,NNE,31,3.9,5.0,98,0.00,,OVC,0.00,0.0,WeatherDisplay:10.37,2013-02-23 06:15:00,
2013-02-23 01:17:00,34.4,33.9,30.25,NNE,14,4.7,5.8,98,0.00,,OVC,0.00,0.0,WeatherDisplay:10.37,2013-02-23 06:17:00,
2013-02-23 01:18:00,34.4,33.9,30.25,NNE,14,3.4,5.0,98,0.00,,OVC,0.00,0.0,WeatherDisplay:10.37,2013-02-23 06:18:00,
2013-02-23 01:20:00,34.4,33.9,30.25,NNE,14,4.7,6.0,98,0.00,,OVC,0.00,0.0,WeatherDisplay:10.37,2013-02-23 06:20:00,
2013-02-23 01:21:00,34.4,33.9,30.25,NNE,14,4.1,5.8,98,0.00,,OVC,0.00,0.0,WeatherDisplay:10.37,2013-02-23 06:21:00,
2013-02-23 01:22:00,34.4,33.9,30.25,NNE,14,2.6,5.8,98,0.00,,OVC,0.00,0.0,WeatherDisplay:10.37,2013-02-23 06:22:00,
2013-02-23 01:23:00,34.4,33.9,30.25,NNE,14,3.3,4.0,98,0.00,,OVC,0.00,0.0,WeatherDisplay:10.37,2013-02-23 06:23:00,
2013-02-23 01:26:00,34.6,34.1,30.25,NNE,14,3.3,5.0,98,0.00,,OVC,0.00,0.0,WeatherDisplay:10.37,2013-02-23 06:26:00,
2013-02-23 01:27:00,34.6,34.1,30.25,NNE,14,3.9,6.0,98,0.00,,OVC,0.00,0.0,WeatherDisplay:10.37,2013-02-23 06:27:00,
2013-02-23 01:28:00,34.4,33.9,30.25,NNE,14,3.7,5.8,98,0.00,,OVC,0.00,0.0,WeatherDisplay:10.37,2013-02-23 06:28:00,
2013-02-23 01:32:00,34.4,33.9,30.25,NNE,14,0.1,3.5,98,0.00,,OVC,0.00,0.0,WeatherDisplay:10.37,2013-02-23 06:32:00,
2013-02-23 01:33:00,34.4,33.9,30.25,NNE,14,0.0,0.0,98,0.00,,OVC,0.00,0.0,WeatherDisplay:10.37,2013-02-23 06:33:00,
2013-02-23 01:35:00,34.4,33.9,30.25,NNE,14,1.6,5.0,98,0.00,,OVC,0.00,0.0,WeatherDisplay:10.37,2013-02-23 06:35:00,
2013-02-23 01:37:00,34.4,33.9,30.25,NNE,14,7.4,9.0,98,0.00,,OVC,0.00,0.0,WeatherDisplay:10.37,2013-02-23 06:37:00,
2013-02-23 01:38:00,34.4,33.9,30.25,NNE,15,5.9,9.2,98,0.00,,OVC,0.00,0.0,WeatherDisplay:10.37,2013-02-23 06:38:00,
2013-02-23 01:39:00,34.4,33.9,30.25,NNE,15,5.0,9.2,98,0.00,,OVC,0.00,0.0,WeatherDisplay:10.37,2013-02-23 06:39:00,
2013-02-23 01:42:00,34.4,33.9,30.25,NNE,13,5.4,5.8,98,0.00,,OVC,0.00,0.0,WeatherDisplay:10.37,2013-02-23 06:42:00,
2013-02-23 01:43:00,34.4,33.9,30.25,NNE,13,3.4,4.6,98,0.00,,OVC,0.00,0.0,WeatherDisplay:10.37,2013-02-23 06:43:00,
2013-02-23 01:46:00,34.4,33.9,30.25,NNE,13,2.7,4.6,98,0.00,,OVC,0.00,0.0,WeatherDisplay:10.37,2013-02-23 06:46:00,
2013-02-23 01:47:00,34.4,33.9,30.25,NNE,13,3.8,5.0,98,0.00,,OVC,0.00,0.0,WeatherDisplay:10.37,2013-02-23 06:47:00,
2013-02-23 01:48:00,34.4,33.9,30.23,NNE,13,2.3,4.6,98,0.00,,OVC,0.00,0.0,WeatherDisplay:10.37,2013-02-23 06:48:00,
2013-02-23 01:49:00,34.4,33.9,30.23,NNE,13,0.0,3.5,98,0.00,,OVC,0.00,0.0,WeatherDisplay:10.37,2013-02-23 06:49:00,
2013-02-23 01:52:00,34.4,33.9,30.23,NNE,13,0.0,0.0,98,0.00,,OVC,0.00,0.0,WeatherDisplay:10.37,2013-02-23 06:52:00,
2013-02-23 01:53:00,34.4,33.9,30.23,NNE,13,0.0,0.0,98,0.00,,OVC,0.00,0.0,WeatherDisplay:10.37,2013-02-23 06:53:00,
2013-02-23 01:55:00,34.4,33.9,30.23,NNE,13,0.0,0.0,98,0.01,RA,OVC,0.01,0.0,WeatherDisplay:10.37,2013-02-23 06:55:00,
2013-02-23 01:57:00,34.4,33.9,30.23,NNE,13,4.3,4.3,98,0.01,RA,OVC,0.01,0.0,WeatherDisplay:10.37,2013-02-23 06:57:00,
2013-02-23 01:58:00,34.4,33.9,30.23,NNE,13,4.6,5.8,98,0.01,RA,OVC,0.01,0.0,WeatherDisplay:10.37,2013-02-23 06:58:00,
2013-02-23 02:00:00,34.4,33.9,30.23,NNE,13,3.0,6.0,98,0.00,RA,OVC,0.01,0.0,WeatherDisplay:10.37,2013-02-23 07:00:00,
2013-02-23 02:03:00,34.4,33.9,30.22,North,360,5.5,11.5,98,0.01,RA,OVC,0.01,0.0,WeatherDisplay:10.37,2013-02-23 07:03:00,
2013-02-23 02:05:00,34.4,33.9,30.22,North,360,4.2,7.0,98,0.01,,OVC,0.01,0.0,WeatherDisplay:10.37,2013-02-23 07:05:00,
2013-02-23 02:06:00,34.4,33.9,30.22,North,360,6.4,9.2,98,0.01,,OVC,0.01,0.0,WeatherDisplay:10.37,2013-02-23 07:06:00,
2013-02-23 02:08:00,34.3,33.8,30.22,North,360,4.2,5.8,98,0.01,,OVC,0.01,0.0,WeatherDisplay:10.37,2013-02-23 07:08:00,
2013-02-23 02:10:00,34.3,33.8,30.22,North,360,4.0,5.8,98,0.01,,OVC,0.01,0.0,WeatherDisplay:10.37,2013-02-23 07:10:00,
2013-02-23 02:11:00,34.3,33.8,30.22,North,360,4.2,5.8,98,0.01,,OVC,0.01,0.0,WeatherDisplay:10.37,2013-02-23 07:11:00,
2013-02-23 02:12:00,34.3,33.8,30.22,North,360,5.0,6.9,98,0.01,,OVC,0.01,0.0,WeatherDisplay:10.37,2013-02-23 07:12:00,
2013-02-23 02:15:00,34.3,33.8,30.22,North,360,5.6,9.2,98,0.01,,OVC,0.01,0.0,WeatherDisplay:10.37,2013-02-23 07:15:00,
2013-02-23 02:16:00,34.3,33.8,30.22,NNE,13,7.7,9.2,98,0.01,,OVC,0.01,0.0,WeatherDisplay:10.37,2013-02-23 07:16:00,
2013-02-23 02:17:00,34.1,33.6,30.22,NNE,14,7.2,10.4,98,0.01,,OVC,0.01,0.0,WeatherDisplay:10.37,2013-02-23 07:17:00,
2013-02-23 02:20:00,34.1,33.6,30.19,NNE,13,5.9,9.2,98,0.01,,OVC,0.01,0.0,WeatherDisplay:10.37,2013-02-23 07:20:00,
2013-02-23 02:21:00,34.1,33.6,30.19,NNE,17,6.2,9.2,98,0.01,,OVC,0.01,0.0,WeatherDisplay:10.37,2013-02-23 07:21:00,
2013-02-23 02:22:00,34.1,33.6,30.19,NNE,24,8.8,10.4,98,0.01,,OVC,0.01,0.0,WeatherDisplay:10.37,2013-02-23 07:22:00,
2013-02-23 02:23:00,34.1,33.6,30.19,NNE,24,7.8,10.4,98,0.01,,OVC,0.01,0.0,WeatherDisplay:10.37,2013-02-23 07:23:00,
2013-02-23 02:26:00,34.1,33.8,30.19,NNE,24,6.5,8.1,99,0.01,,OVC,0.01,0.0,WeatherDisplay:10.37,2013-02-23 07:26:00,
2013-02-23 02:27:00,34.1,33.8,30.19,NNE,24,7.1,9.2,99,0.01,,OVC,0.01,0.0,WeatherDisplay:10.37,2013-02-23 07:27:00,
2013-02-23 02:28:00,34.1,33.8,30.19,NNE,22,6.2,9.2,99,0.01,,OVC,0.01,0.0,WeatherDisplay:10.37,2013-02-23 07:28:00,
2013-02-23 02:30:00,34.1,33.8,30.19,NNE,23,3.0,12.0,99,0.00,,OVC,0.01,0.0,WeatherDisplay:10.37,2013-02-23 07:30:00,
2013-02-23 02:33:00,34.1,33.8,30.19,NNE,22,3.6,5.0,99,0.01,,OVC,0.01,0.0,WeatherDisplay:10.37,2013-02-23 07:33:00,
2013-02-23 02:36:00,34.1,33.8,30.18,NNE,24,0.9,4.6,99,0.01,,OVC,0.01,0.0,WeatherDisplay:10.37,2013-02-23 07:36:00,
2013-02-23 02:38:00,34.1,33.8,30.18,NNE,24,2.8,7.0,99,0.01,,OVC,0.01,0.0,WeatherDisplay:10.37,2013-02-23 07:38:00,
2013-02-23 02:39:00,34.1,33.8,30.18,NNE,24,5.1,6.0,99,0.01,,OVC,0.01,0.0,WeatherDisplay:10.37,2013-02-23 07:39:00,
2013-02-23 02:40:00,34.1,33.8,30.18,NNE,24,5.5,9.2,99,0.01,,OVC,0.01,0.0,WeatherDisplay:10.37,2013-02-23 07:40:00,
2013-02-23 02:43:00,34.0,33.7,30.18,NNE,24,6.6,6.6,99,0.01,,OVC,0.01,0.0,WeatherDisplay:10.37,2013-02-23 07:43:00,
2013-02-23 02:45:00,34.0,33.7,30.18,NNE,14,6.1,11.5,99,0.01,,OVC,0.01,0.0,WeatherDisplay:10.37,2013-02-23 07:45:00,
2013-02-23 02:46:00,34.0,33.7,30.18,NNE,28,7.8,11.5,99,0.01,,OVC,0.01,0.0,WeatherDisplay:10.37,2013-02-23 07:46:00,
2013-02-23 02:50:00,34.0,33.7,30.17,NNE,28,5.5,7.0,99,0.01,,OVC,0.01,0.0,WeatherDisplay:10.37,2013-02-23 07:50:00,
2013-02-23 02:51:00,34.0,33.7,30.17,NNE,28,5.9,6.9,99,0.01,,OVC,0.01,0.0,WeatherDisplay:10.37,2013-02-23 07:51:00,
2013-02-23 02:52:00,34.0,33.7,30.17,NNE,28,3.9,5.8,99,0.01,,OVC,0.01,0.0,WeatherDisplay:10.37,2013-02-23 07:52:00,
2013-02-23 02:56:00,34.0,33.7,30.17,NNE,28,5.8,10.4,99,0.00,,OVC,0.01,0.0,WeatherDisplay:10.37,2013-02-23 07:56:00,
2013-02-23 02:57:00,34.0,33.7,30.17,NNE,28,5.4,6.9,99,0.00,,OVC,0.01,0.0,WeatherDisplay:10.37,2013-02-23 07:57:00,
2013-02-23 02:58:00,34.0,33.7,30.17,NNE,33,6.6,6.9,99,0.00,,OVC,0.01,0.0,WeatherDisplay:10.37,2013-02-23 07:58:00,
2013-02-23 02:59:00,34.0,33.7,30.17,NNE,33,6.8,10.4,99,0.00,,OVC,0.01,0.0,WeatherDisplay:10.37,2013-02-23 07:59:00,
2013-02-23 03:01:00,34.0,33.7,30.17,NNE,33,8.6,9.2,99,0.00,,OVC,0.01,0.0,WeatherDisplay:10.37,2013-02-23 08:01:00,
2013-02-23 03:02:00,34.0,33.7,30.17,NE,34,7.9,10.4,99,0.00,,OVC,0.01,0.0,WeatherDisplay:10.37,2013-02-23 08:02:00,
2013-02-23 03:03:00,34.0,33.7,30.15,NE,34,4.1,9.2,99,0.00,,OVC,0.01,0.0,WeatherDisplay:10.37,2013-02-23 08:03:00,
2013-02-23 03:06:00,34.0,33.7,30.15,NE,35,5.0,7.0,99,0.00,,OVC,0.01,0.0,WeatherDisplay:10.37,2013-02-23 08:06:00,
2013-02-23 03:07:00,34.0,33.7,30.15,NE,35,6.3,6.3,99,0.00,,OVC,0.01,0.0,WeatherDisplay:10.37,2013-02-23 08:07:00,
2013-02-23 03:08:00,34.0,33.7,30.15,NE,35,5.4,9.2,99,0.00,,OVC,0.01,0.0,WeatherDisplay:10.37,2013-02-23 08:08:00,
2013-02-23 03:11:00,34.0,33.7,30.15,NE,36,6.5,6.9,99,0.00,,OVC,0.01,0.0,WeatherDisplay:10.37,2013-02-23 08:11:00,
2013-02-23 03:12:00,34.0,33.7,30.15,NE,36,4.9,8.1,99,0.00,,OVC,0.01,0.0,WeatherDisplay:10.37,2013-02-23 08:12:00,
2013-02-23 03:13:00,34.0,33.7,30.15,NE,36,2.9,8.1,99,0.00,,OVC,0.01,0.0,WeatherDisplay:10.37,2013-02-23 08:13:00,
2013-02-23 03:17:00,34.0,33.7,30.15,NE,36,3.9,5.0,99,0.00,,OVC,0.01,0.0,WeatherDisplay:10.37,2013-02-23 08:17:00,
2013-02-23 03:18:00,34.0,33.7,30.15,NE,36,3.3,4.6,99,0.00,,OVC,0.01,0.0,WeatherDisplay:10.37,2013-02-23 08:18:00,
2013-02-23 03:19:00,34.0,33.7,30.15,NE,36,3.0,3.5,99,0.00,,OVC,0.01,0.0,WeatherDisplay:10.37,2013-02-23 08:19:00,
2013-02-23 03:21:00,34.1,33.8,30.15,NE,36,3.7,5.8,99,0.00,,OVC,0.01,0.0,WeatherDisplay:10.37,2013-02-23 08:21:00,
2013-02-23 03:25:00,34.1,33.8,30.15,NE,36,2.8,4.6,99,0.00,,OVC,0.01,0.0,WeatherDisplay:10.37,2013-02-23 08:25:00,
2013-02-23 03:27:00,34.1,33.8,30.15,NE,36,3.8,4.6,99,0.00,,OVC,0.01,0.0,WeatherDisplay:10.37,2013-02-23 08:27:00,
2013-02-23 03:29:00,34.1,33.8,30.15,NE,36,2.2,3.5,99,0.00,,OVC,0.01,0.0,WeatherDisplay:10.37,2013-02-23 08:29:00,
2013-02-23 03:30:00,34.1,33.8,30.15,NE,36,1.2,3.5,99,0.00,,OVC,0.01,0.0,WeatherDisplay:10.37,2013-02-23 08:30:00,
2013-02-23 03:33:00,34.1,33.8,30.15,NE,36,1.8,2.3,99,0.00,,OVC,0.01,0.0,WeatherDisplay:10.37,2013-02-23 08:33:00,
2013-02-23 03:34:00,34.1,33.8,30.17,NE,36,1.1,3.5,99,0.00,,OVC,0.01,0.0,WeatherDisplay:10.37,2013-02-23 08:34:00,
2013-02-23 03:36:00,34.1,33.8,30.17,NE,36,0.0,0.0,99,0.00,,OVC,0.01,0.0,WeatherDisplay:10.37,2013-02-23 08:36:00,
2013-02-23 03:37:00,34.1,33.8,30.17,NE,36,0.0,0.0,99,0.00,,OVC,0.01,0.0,WeatherDisplay:10.37,2013-02-23 08:37:00,
2013-02-23 03:38:00,34.1,33.8,30.17,NE,36,0.0,0.0,99,0.00,,OVC,0.01,0.0,WeatherDisplay:10.37,2013-02-23 08:38:00,
2013-02-23 03:39:00,34.1,33.8,30.17,NE,36,0.0,0.0,99,0.00,,OVC,0.01,0.0,WeatherDisplay:10.37,2013-02-23 08:39:00,
2013-02-23 03:42:00,34.1,33.8,30.17,NE,36,2.6,3.5,99,0.00,,OVC,0.01,0.0,WeatherDisplay:10.37,2013-02-23 08:42:00,
2013-02-23 03:43:00,34.1,33.8,30.17,NE,36,2.8,3.5,99,0.00,,OVC,0.01,0.0,WeatherDisplay:10.37,2013-02-23 08:43:00,
2013-02-23 03:44:00,34.1,33.8,30.17,NE,36,3.1,3.5,99,0.00,,OVC,0.01,0.0,WeatherDisplay:10.37,2013-02-23 08:44:00,
2013-02-23 03:48:00,34.3,34.0,30.16,NE,36,4.8,6.0,99,0.00,,OVC,0.01,0.0,WeatherDisplay:10.37,2013-02-23 08:48:00,
2013-02-23 03:49:00,34.3,34.0,30.16,NE,36,4.1,5.8,99,0.00,,OVC,0.01,0.0,WeatherDisplay:10.37,2013-02-23 08:49:00,
2013-02-23 03:50:00,34.1,33.8,30.16,NE,36,5.3,6.0,99,0.00,,OVC,0.01,0.0,WeatherDisplay:10.37,2013-02-23 08:50:00,
2013-02-23 03:53:00,34.1,33.8,30.16,NE,36,2.2,3.5,99,0.00,,OVC,0.01,0.0,WeatherDisplay:10.37,2013-02-23 08:53:00,
2013-02-23 03:54:00,34.1,33.8,30.16,NE,36,2.4,3.5,99,0.00,,OVC,0.01,0.0,WeatherDisplay:10.37,2013-02-23 08:54:00,
2013-02-23 03:55:00,34.1,33.8,30.16,NE,36,2.4,3.5,99,0.00,,OVC,0.01,0.0,WeatherDisplay:10.37,2013-02-23 08:55:00,
2013-02-23 03:59:00,34.1,33.8,30.16,NE,36,2.7,5.8,99,0.00,,OVC,0.01,0.0,WeatherDisplay:10.37,2013-02-23 08:59:00,
2013-02-23 04:00:00,34.1,33.8,30.16,NE,36,3.3,5.0,99,0.00,,OVC,0.01,0.0,WeatherDisplay:10.37,2013-02-23 09:00:00,
2013-02-23 04:04:00,34.1,33.8,30.17,NE,36,3.1,4.0,99,0.00,,OVC,0.01,0.0,WeatherDisplay:10.37,2013-02-23 09:04:00,
2013-02-23 04:05:00,34.1,33.8,30.17,NE,36,3.1,4.0,99,0.00,,OVC,0.01,0.0,WeatherDisplay:10.37,2013-02-23 09:05:00,
2013-02-23 04:06:00,34.1,33.8,30.17,NE,36,2.8,3.5,99,0.00,,OVC,0.01,0.0,WeatherDisplay:10.37,2013-02-23 09:06:00,
2013-02-23 04:09:00,34.1,33.8,30.17,NE,36,2.8,3.5,99,0.00,,OVC,0.01,0.0,WeatherDisplay:10.37,2013-02-23 09:09:00,
2013-02-23 04:11:00,34.1,33.8,30.17,NE,36,3.2,3.5,99,0.00,,OVC,0.01,0.0,WeatherDisplay:10.37,2013-02-23 09:11:00,
2013-02-23 04:13:00,34.1,33.8,30.17,NE,36,3.6,4.0,99,0.00,,OVC,0.01,0.0,WeatherDisplay:10.37,2013-02-23 09:13:00,
2013-02-23 04:16:00,34.1,33.8,30.17,NE,36,3.3,5.0,99,0.00,,OVC,0.01,0.0,WeatherDisplay:10.37,2013-02-23 09:16:00,
2013-02-23 04:17:00,34.1,33.8,30.17,NE,36,5.0,6.0,99,0.00,,OVC,0.01,0.0,WeatherDisplay:10.37,2013-02-23 09:17:00,
2013-02-23 04:18:00,34.1,33.8,30.16,NE,36,5.3,6.9,99,0.00,,OVC,0.01,0.0,WeatherDisplay:10.37,2013-02-23 09:18:00,
2013-02-23 04:22:00,34.1,33.8,30.16,NE,36,3.5,4.6,99,0.00,,OVC,0.01,0.0,WeatherDisplay:10.37,2013-02-23 09:22:00,
2013-02-23 04:23:00,34.1,33.8,30.16,NE,36,3.6,4.6,99,0.00,,OVC,0.01,0.0,WeatherDisplay:10.37,2013-02-23 09:23:00,
2013-02-23 04:24:00,34.1,33.8,30.16,NE,36,3.4,4.0,99,0.00,,OVC,0.01,0.0,WeatherDisplay:10.37,2013-02-23 09:24:00,
2013-02-23 04:27:00,34.1,33.8,30.16,NE,36,0.5,3.5,99,0.00,,OVC,0.01,0.0,WeatherDisplay:10.37,2013-02-23 09:27:00,
2013-02-23 04:29:00,34.1,33.8,30.16,NE,36,0.0,0.0,99,0.00,,OVC,0.01,0.0,WeatherDisplay:10.37,2013-02-23 09:29:00,
2013-02-23 04:30:00,34.1,33.8,30.16,NE,36,0.0,7.0,99,0.00,,OVC,0.01,0.0,WeatherDisplay:10.37,2013-02-23 09:30:00,
2013-02-23 04:32:00,34.1,33.8,30.16,NE,36,1.2,3.5,99,0.00,,OVC,0.01,0.0,WeatherDisplay:10.37,2013-02-23 09:32:00,
2013-02-23 04:35:00,34.1,33.8,30.17,NE,36,0.4,2.3,99,0.00,,OVC,0.01,0.0,WeatherDisplay:10.37,2013-02-23 09:35:00,
2013-02-23 04:36:00,34.1,33.8,30.17,NE,36,0.0,2.3,99,0.00,,OVC,0.01,0.0,WeatherDisplay:10.37,2013-02-23 09:36:00,
2013-02-23 04:38:00,34.1,33.8,30.17,NE,36,0.0,0.0,99,0.00,,OVC,0.01,0.0,WeatherDisplay:10.37,2013-02-23 09:38:00,
2013-02-23 04:41:00,34.1,33.8,30.17,NE,36,0.0,0.0,99,0.00,,OVC,0.01,0.0,WeatherDisplay:10.37,2013-02-23 09:41:00,
2013-02-23 04:43:00,34.1,33.8,30.17,NE,36,0.0,0.0,99,0.00,,OVC,0.01,0.0,WeatherDisplay:10.37,2013-02-23 09:43:00,
2013-02-23 04:44:00,34.1,33.8,30.17,NE,36,1.9,2.3,99,0.00,,OVC,0.01,0.0,WeatherDisplay:10.37,2013-02-23 09:44:00,
2013-02-23 04:47:00,34.1,33.8,30.17,NE,36,1.9,3.5,99,0.00,,OVC,0.01,0.0,WeatherDisplay:10.37,2013-02-23 09:47:00,
2013-02-23 04:48:00,34.1,33.8,30.17,NE,36,0.2,2.3,99,0.00,,OVC,0.01,0.0,WeatherDisplay:10.37,2013-02-23 09:48:00,
2013-02-23 04:49:00,34.1,33.8,30.17,NE,36,0.0,0.0,99,0.00,,OVC,0.01,0.0,WeatherDisplay:10.37,2013-02-23 09:49:00,
2013-02-23 04:52:00,34.1,33.8,30.17,NE,36,0.0,0.0,99,0.01,RA,OVC,0.02,0.0,WeatherDisplay:10.37,2013-02-23 09:52:00,
2013-02-23 04:54:00,34.1,33.8,30.17,NE,36,0.0,0.0,99,0.01,RA,OVC,0.02,0.0,WeatherDisplay:10.37,2013-02-23 09:54:00,
2013-02-23 04:56:00,34.1,33.8,30.17,NE,36,0.0,0.0,99,0.01,RA,OVC,0.02,0.0,WeatherDisplay:10.37,2013-02-23 09:56:00,
2013-02-23 04:57:00,34.1,33.8,30.17,NE,36,0.0,0.0,99,0.01,RA,OVC,0.02,0.0,WeatherDisplay:10.37,2013-02-23 09:57:00,
2013-02-23 04:59:00,34.1,33.8,30.17,NE,36,0.0,0.0,99,0.01,RA,OVC,0.02,0.0,WeatherDisplay:10.37,2013-02-23 09:59:00,
2013-02-23 05:02:00,34.1,33.8,30.17,NE,36,0.0,0.0,99,0.01,,OVC,0.02,0.0,WeatherDisplay:10.37,2013-02-23 10:02:00,
2013-02-23 05:03:00,34.1,33.8,30.17,NE,36,0.0,0.0,99,0.01,,OVC,0.02,0.0,WeatherDisplay:10.37,2013-02-23 10:03:00,
2013-02-23 05:05:00,34.1,33.8,30.17,NE,36,2.2,3.5,99,0.02,RA,OVC,0.03,0.0,WeatherDisplay:10.37,2013-02-23 10:05:00,
2013-02-23 05:08:00,34.1,33.8,30.17,NE,36,1.6,3.5,99,0.02,RA,OVC,0.03,0.0,WeatherDisplay:10.37,2013-02-23 10:08:00,
2013-02-23 05:09:00,34.1,33.8,30.17,NE,36,0.1,2.3,99,0.02,RA,OVC,0.03,0.0,WeatherDisplay:10.37,2013-02-23 10:09:00,
2013-02-23 05:10:00,34.1,33.8,30.17,NE,36,0.0,2.3,99,0.02,RA,OVC,0.03,0.0,WeatherDisplay:10.37,2013-02-23 10:10:00,
2013-02-23 05:15:00,34.1,33.8,30.17,NE,36,2.0,4.0,99,0.00,,OVC,0.03,0.0,WeatherDisplay:10.37,2013-02-23 10:15:00,
2013-02-23 05:16:00,34.1,33.8,30.17,NE,36,2.0,3.5,99,0.02,,OVC,0.04,0.0,WeatherDisplay:10.37,2013-02-23 10:16:00,
2013-02-23 05:20:00,34.1,33.8,30.17,NE,36,3.5,6.0,99,0.03,RA,OVC,0.04,0.0,WeatherDisplay:10.37,2013-02-23 10:20:00,
2013-02-23 05:21:00,34.1,33.8,30.17,NE,36,4.5,5.8,99,0.03,RA,OVC,0.04,0.0,WeatherDisplay:10.37,2013-02-23 10:21:00,
2013-02-23 05:22:00,34.1,33.8,30.17,NE,36,3.2,5.8,99,0.03,RA,OVC,0.04,0.0,WeatherDisplay:10.37,2013-02-23 10:22:00,
2013-02-23 05:23:00,34.1,33.8,30.17,NE,36,3.0,3.5,99,0.03,RA,OVC,0.04,0.0,WeatherDisplay:10.37,2013-02-23 10:23:00,
2013-02-23 05:26:00,34.1,33.8,30.17,NE,36,3.9,4.6,99,0.03,RA,OVC,0.04,0.0,WeatherDisplay:10.37,2013-02-23 10:26:00,
2013-02-23 05:28:00,34.1,33.8,30.17,NE,36,4.2,6.0,99,0.03,,OVC,0.04,0.0,WeatherDisplay:10.37,2013-02-23 10:28:00,
2013-02-23 05:30:00,34.1,33.8,30.17,NE,35,5.0,8.0,99,0.00,,OVC,0.04,0.0,WeatherDisplay:10.37,2013-02-23 10:30:00,
2013-02-23 05:31:00,34.1,33.8,30.17,NNE,32,6.1,8.1,99,0.03,,OVC,0.04,0.0,WeatherDisplay:10.37,2013-02-23 10:31:00,
2013-02-23 05:33:00,34.1,33.8,30.15,NNE,32,5.7,6.9,99,0.04,RA,OVC,0.05,0.0,WeatherDisplay:10.37,2013-02-23 10:33:00,
2013-02-23 05:34:00,34.1,33.8,30.15,NNE,32,5.8,6.9,99,0.04,RA,OVC,0.05,0.0,WeatherDisplay:10.37,2013-02-23 10:34:00,
2013-02-23 05:35:00,34.1,33.8,30.15,NNE,31,5.8,6.9,99,0.04,RA,OVC,0.05,0.0,WeatherDisplay:10.37,2013-02-23 10:35:00,
2013-02-23 05:38:00,34.1,33.8,30.15,NNE,22,6.6,9.2,99,0.04,RA,OVC,0.05,0.0,WeatherDisplay:10.37,2013-02-23 10:38:00,
2013-02-23 05:39:00,34.1,33.8,30.15,NNE,13,6.7,10.4,99,0.04,RA,OVC,0.05,0.0,WeatherDisplay:10.37,2013-02-23 10:39:00,
2013-02-23 05:40:00,34.1,33.8,30.15,NNE,12,5.0,10.4,99,0.04,RA,OVC,0.05,0.0,WeatherDisplay:10.37,2013-02-23 10:40:00,
2013-02-23 05:42:00,34.1,33.8,30.15,North,11,6.0,6.9,99,0.04,RA,OVC,0.05,0.0,WeatherDisplay:10.37,2013-02-23 10:42:00,
2013-02-23 05:45:00,34.1,33.8,30.15,North,360,5.5,9.2,99,0.05,RA,OVC,0.06,0.0,WeatherDisplay:10.37,2013-02-23 10:45:00,
2013-02-23 05:46:00,34.1,33.8,30.15,North,360,5.3,9.2,99,0.05,RA,OVC,0.06,0.0,WeatherDisplay:10.37,2013-02-23 10:46:00,
2013-02-23 05:48:00,34.1,33.8,30.15,North,360,1.9,5.8,99,0.05,RA,OVC,0.06,0.0,WeatherDisplay:10.37,2013-02-23 10:48:00,
2013-02-23 05:50:00,34.1,33.8,30.15,NNE,15,6.0,9.2,99,0.05,RA,OVC,0.06,0.0,WeatherDisplay:10.37,2013-02-23 10:50:00,
2013-02-23 05:51:00,34.1,33.8,30.15,NNE,21,7.2,11.5,99,0.05,RA,OVC,0.06,0.0,WeatherDisplay:10.37,2013-02-23 10:51:00,
2013-02-23 05:53:00,34.1,33.8,30.15,NNE,13,7.3,11.5,99,0.04,RA,OVC,0.07,0.0,WeatherDisplay:10.37,2013-02-23 10:53:00,
2013-02-23 05:56:00,34.1,33.8,30.15,NNE,17,5.9,9.2,99,0.05,RA,OVC,0.07,0.0,WeatherDisplay:10.37,2013-02-23 10:56:00,
2013-02-23 05:57:00,34.1,33.8,30.15,NNE,17,5.3,7.0,99,0.05,RA,OVC,0.07,0.0,WeatherDisplay:10.37,2013-02-23 10:57:00,
2013-02-23 05:58:00,34.1,33.8,30.15,NNE,17,5.8,6.9,99,0.05,RA,OVC,0.07,0.0,WeatherDisplay:10.37,2013-02-23 10:58:00,
2013-02-23 06:00:00,34.1,33.8,30.15,NNE,17,3.0,12.0,99,0.00,RA,OVC,0.07,0.0,WeatherDisplay:10.37,2013-02-23 11:00:00,
2013-02-23 06:01:00,34.1,33.8,30.15,NNE,15,4.8,9.2,99,0.06,RA,OVC,0.08,0.0,WeatherDisplay:10.37,2013-02-23 11:01:00,
2013-02-23 06:04:00,34.1,33.8,30.14,NNE,15,4.6,5.0,99,0.06,RA,OVC,0.08,0.0,WeatherDisplay:10.37,2013-02-23 11:04:00,
2013-02-23 06:05:00,34.1,33.8,30.14,NNE,15,4.8,6.9,99,0.05,RA,OVC,0.08,0.0,WeatherDisplay:10.37,2013-02-23 11:05:00,
2013-02-23 06:07:00,34.1,33.8,30.14,NNE,15,3.8,4.6,99,0.05,RA,OVC,0.08,0.0,WeatherDisplay:10.37,2013-02-23 11:07:00,
2013-02-23 06:08:00,34.1,33.8,30.14,NNE,15,3.8,4.6,99,0.05,RA,OVC,0.08,0.0,WeatherDisplay:10.37,2013-02-23 11:08:00,
2013-02-23 06:10:00,34.1,33.8,30.14,NNE,15,4.1,5.8,99,0.05,RA,OVC,0.08,0.0,WeatherDisplay:10.37,2013-02-23 11:10:00,
2013-02-23 06:12:00,34.1,33.8,30.14,NNE,15,3.9,4.6,99,0.05,,OVC,0.08,0.0,WeatherDisplay:10.37,2013-02-23 11:12:00,
2013-02-23 06:14:00,34.1,33.8,30.14,NNE,15,2.6,5.8,99,0.05,,OVC,0.08,0.0,WeatherDisplay:10.37,2013-02-23 11:14:00,
2013-02-23 06:16:00,34.1,33.8,30.14,NNE,15,3.5,5.0,99,0.05,,OVC,0.09,0.0,WeatherDisplay:10.37,2013-02-23 11:16:00,
2013-02-23 06:17:00,34.1,33.8,30.14,NNE,15,4.7,6.0,99,0.05,RA,OVC,0.09,0.0,WeatherDisplay:10.37,2013-02-23 11:17:00,
2013-02-23 06:19:00,34.1,33.8,30.14,NNE,22,5.3,6.9,99,0.05,RA,OVC,0.09,0.0,WeatherDisplay:10.37,2013-02-23 11:19:00,
2013-02-23 06:22:00,34.1,33.8,30.14,NNE,22,5.2,6.9,99,0.05,RA,OVC,0.09,0.0,WeatherDisplay:10.37,2013-02-23 11:22:00,
2013-02-23 06:24:00,34.1,33.8,30.14,NNE,26,7.6,10.0,99,0.05,RA,OVC,0.09,0.0,WeatherDisplay:10.37,2013-02-23 11:24:00,
2013-02-23 06:27:00,34.1,33.8,30.14,NNE,26,7.8,10.4,99,0.05,OVC,,0.09,0.0,WeatherDisplay:10.37,2013-02-23 11:27:00,
2013-02-23 06:28:00,34.1,33.8,30.14,NNE,26,7.4,10.4,99,0.05,OVC,,0.09,0.0,WeatherDisplay:10.37,2013-02-23 11:28:00,
2013-02-23 06:29:00,34.1,33.8,30.14,NNE,20,8.4,10.4,99,0.05,OVC,,0.09,0.0,WeatherDisplay:10.37,2013-02-23 11:29:00,
2013-02-23 06:30:00,34.1,33.8,30.14,NNE,23,8.0,12.0,99,0.00,OVC,OVC,0.09,0.0,WeatherDisplay:10.37,2013-02-23 11:30:00,
2013-02-23 06:33:00,34.1,33.8,30.10,NNE,19,8.9,11.0,99,0.04,OVC,,0.09,0.0,WeatherDisplay:10.37,2013-02-23 11:33:00,
2013-02-23 06:35:00,34.1,33.8,30.10,NNE,23,8.4,11.5,99,0.05,RA,OVC,0.10,0.0,WeatherDisplay:10.37,2013-02-23 11:35:00,
2013-02-23 06:37:00,34.1,33.8,30.10,NNE,24,4.9,6.9,99,0.05,RA,OVC,0.10,0.0,WeatherDisplay:10.37,2013-02-23 11:37:00,
2013-02-23 06:38:00,34.3,34.0,30.10,NNE,24,4.8,6.9,99,0.05,RA,OVC,0.10,0.0,WeatherDisplay:10.37,2013-02-23 11:38:00,
2013-02-23 06:39:00,34.3,34.0,30.10,NNE,31,8.0,11.5,99,0.05,RA,OVC,0.10,0.0,WeatherDisplay:10.37,2013-02-23 11:39:00,
2013-02-23 06:40:00,34.3,34.0,30.10,NNE,31,6.0,9.2,99,0.05,RA,OVC,0.10,0.0,WeatherDisplay:10.37,2013-02-23 11:40:00,
2013-02-23 06:42:00,34.3,34.0,30.10,NNE,31,5.3,6.9,99,0.05,RA,OVC,0.10,0.0,WeatherDisplay:10.37,2013-02-23 11:42:00,
2013-02-23 06:45:00,34.3,34.0,30.10,NNE,33,5.0,10.4,99,0.04,RA,OVC,0.10,0.0,WeatherDisplay:10.37,2013-02-23 11:45:00,
2013-02-23 06:48:00,34.3,34.0,30.10,NE,36,6.2,11.5,99,0.04,OVC,,0.10,0.0,WeatherDisplay:10.37,2013-02-23 11:48:00,
2013-02-23 06:50:00,34.3,34.0,30.10,NE,36,5.4,6.9,99,0.04,OVC,,0.10,0.0,WeatherDisplay:10.37,2013-02-23 11:50:00,
2013-02-23 06:53:00,34.3,34.0,30.10,NE,36,4.2,6.0,99,0.03,OVC,,0.10,0.0,WeatherDisplay:10.37,2013-02-23 11:53:00,
2013-02-23 06:55:00,34.3,34.0,30.10,NE,35,5.4,9.0,99,0.03,OVC,,0.10,0.0,WeatherDisplay:10.37,2013-02-23 11:55:00,
2013-02-23 06:57:00,34.3,34.0,30.10,NE,36,5.8,6.9,99,0.03,OVC,,0.10,0.0,WeatherDisplay:10.37,2013-02-23 11:57:00,
2013-02-23 06:58:00,34.3,34.0,30.10,NE,36,5.0,6.9,99,0.03,OVC,,0.10,0.0,WeatherDisplay:10.37,2013-02-23 11:58:00,
2013-02-23 07:01:00,34.4,34.1,30.10,NE,36,4.8,5.0,99,0.02,OVC,,0.10,0.0,WeatherDisplay:10.37,2013-02-23 12:01:00,
2013-02-23 07:02:00,34.4,34.1,30.10,NE,36,5.3,6.9,99,0.02,OVC,,0.10,0.0,WeatherDisplay:10.37,2013-02-23 12:02:00,
2013-02-23 07:04:00,34.4,34.1,30.09,NE,36,2.5,3.5,99,0.02,OVC,,0.10,0.0,WeatherDisplay:10.37,2013-02-23 12:04:00,
2013-02-23 07:06:00,34.4,34.4,30.09,NE,36,3.3,4.6,100,0.02,OVC,,0.10,0.0,WeatherDisplay:10.37,2013-02-23 12:06:00,
2013-02-23 07:07:00,34.4,34.4,30.09,NE,36,3.8,4.6,100,0.02,OVC,,0.10,0.0,WeatherDisplay:10.37,2013-02-23 12:07:00,
2013-02-23 07:09:00,34.4,34.1,30.09,NE,42,6.1,9.2,99,0.02,OVC,,0.10,0.0,WeatherDisplay:10.37,2013-02-23 12:09:00,
2013-02-23 07:12:00,34.6,34.3,30.09,NE,43,5.2,6.0,99,0.02,OVC,,0.10,0.0,WeatherDisplay:10.37,2013-02-23 12:12:00,
2013-02-23 07:13:00,34.6,34.3,30.09,NE,50,6.3,10.4,99,0.02,OVC,,0.10,0.0,WeatherDisplay:10.37,2013-02-23 12:13:00,
2013-02-23 07:14:00,34.6,34.3,30.09,NE,50,4.1,6.9,99,0.02,OVC,,0.10,0.0,WeatherDisplay:10.37,2013-02-23 12:14:00,
2013-02-23 07:16:00,34.6,34.3,30.09,NE,50,2.8,5.0,99,0.02,OVC,,0.10,0.0,WeatherDisplay:10.37,2013-02-23 12:16:00,
2013-02-23 07:17:00,34.6,34.3,30.09,NE,50,4.3,5.8,99,0.01,OVC,,0.10,0.0,WeatherDisplay:10.37,2013-02-23 12:17:00,
2013-02-23 07:19:00,34.6,34.3,30.09,NE,50,4.4,5.8,99,0.01,OVC,,0.10,0.0,WeatherDisplay:10.37,2013-02-23 12:19:00,
2013-02-23 07:21:00,34.7,34.4,30.09,NE,49,3.3,6.0,99,0.01,OVC,,0.10,0.0,WeatherDisplay:10.37,2013-02-23 12:21:00,
2013-02-23 07:22:00,34.7,34.4,30.09,NE,49,3.4,5.8,99,0.01,OVC,,0.10,0.0,WeatherDisplay:10.37,2013-02-23 12:22:00,
2013-02-23 07:26:00,34.7,34.7,30.09,NE,49,3.8,4.6,100,0.01,OVC,,0.10,0.0,WeatherDisplay:10.37,2013-02-23 12:26:00,
2013-02-23 07:27:00,34.7,34.7,30.09,NE,49,1.8,4.6,100,0.01,OVC,,0.10,5.0,WeatherDisplay:10.37,2013-02-23 12:27:00,
2013-02-23 07:28:00,34.7,34.4,30.09,NE,49,4.1,4.6,99,0.01,OVC,,0.10,5.0,WeatherDisplay:10.37,2013-02-23 12:28:00,
2013-02-23 07:31:00,34.7,34.4,30.09,NE,49,4.2,4.2,99,0.01,OVC,,0.10,5.0,WeatherDisplay:10.37,2013-02-23 12:31:00,
2013-02-23 07:32:00,34.7,34.4,30.09,NE,49,3.1,4.6,99,0.01,OVC,,0.10,5.0,WeatherDisplay:10.37,2013-02-23 12:32:00,
2013-02-23 07:33:00,34.7,34.4,30.10,NE,49,2.2,3.5,99,0.01,OVC,,0.10,7.0,WeatherDisplay:10.37,2013-02-23 12:33:00,
2013-02-23 07:36:00,34.7,34.4,30.10,NE,49,4.1,4.6,99,0.00,OVC,,0.10,7.0,WeatherDisplay:10.37,2013-02-23 12:36:00,
2013-02-23 07:37:00,34.7,34.4,30.10,NE,49,4.1,4.6,99,0.00,OVC,,0.10,5.0,WeatherDisplay:10.37,2013-02-23 12:37:00,
2013-02-23 07:38:00,34.7,34.4,30.10,NE,49,2.6,5.8,99,0.00,OVC,,0.10,5.0,WeatherDisplay:10.37,2013-02-23 12:38:00,
2013-02-23 07:42:00,34.7,34.4,30.10,NE,49,1.9,4.6,99,0.00,OVC,,0.10,5.0,WeatherDisplay:10.37,2013-02-23 12:42:00,
2013-02-23 07:43:00,34.7,34.4,30.10,NE,49,0.1,2.3,99,0.00,OVC,,0.10,5.0,WeatherDisplay:10.37,2013-02-23 12:43:00,
2013-02-23 07:44:00,34.7,34.4,30.10,NE,49,2.3,3.5,99,0.00,OVC,,0.10,7.0,WeatherDisplay:10.37,2013-02-23 12:44:00,
2013-02-23 07:48:00,34.7,34.4,30.10,NE,49,2.2,3.5,99,0.00,OVC,,0.10,5.0,WeatherDisplay:10.37,2013-02-23 12:48:00,
2013-02-23 07:49:00,34.7,34.4,30.12,NE,49,0.0,0.0,99,0.00,OVC,,0.10,5.0,WeatherDisplay:10.37,2013-02-23 12:49:00,
2013-02-23 07:51:00,34.9,34.6,30.12,NE,49,3.7,3.7,99,0.00,OVC,,0.10,7.0,WeatherDisplay:10.37,2013-02-23 12:51:00,
2013-02-23 07:53:00,34.7,34.4,30.12,NE,49,1.7,3.5,99,0.00,OVC,,0.10,5.0,WeatherDisplay:10.37,2013-02-23 12:53:00,
2013-02-23 07:55:00,34.7,34.4,30.12,NE,49,0.0,3.5,99,0.00,OVC,,0.10,5.0,WeatherDisplay:10.37,2013-02-23 12:55:00,
2013-02-23 07:56:00,34.7,34.4,30.12,NE,49,0.0,0.0,99,0.00,OVC,,0.10,5.0,WeatherDisplay:10.37,2013-02-23 12:56:00,
2013-02-23 07:58:00,34.9,34.6,30.12,NE,49,0.0,0.0,99,0.00,OVC,,0.10,5.0,WeatherDisplay:10.37,2013-02-23 12:58:00,
2013-02-23 07:59:00,34.9,34.6,30.12,NE,49,1.0,4.0,99,0.00,OVC,,0.10,7.0,WeatherDisplay:10.37,2013-02-23 12:59:00,
2013-02-23 08:01:00,34.9,34.6,30.12,NE,49,2.3,3.5,99,0.00,OVC,,0.10,7.0,WeatherDisplay:10.37,2013-02-23 13:01:00,
2013-02-23 08:04:00,34.9,34.6,30.12,NE,49,2.6,3.5,99,0.00,OVC,,0.10,9.0,WeatherDisplay:10.37,2013-02-23 13:04:00,
2013-02-23 08:05:00,34.9,34.6,30.12,NE,49,3.7,4.6,99,0.00,OVC,,0.10,9.0,WeatherDisplay:10.37,2013-02-23 13:05:00,
2013-02-23 08:06:00,34.9,34.6,30.12,NE,49,3.9,4.6,99,0.00,OVC,,0.10,11.0,WeatherDisplay:10.37,2013-02-23 13:06:00,
2013-02-23 08:09:00,34.9,34.6,30.12,NE,49,2.7,3.5,99,0.00,OVC,,0.10,7.0,WeatherDisplay:10.37,2013-02-23 13:09:00,
2013-02-23 08:11:00,34.9,34.6,30.12,NE,49,2.7,5.0,99,0.01,RA,OVC,0.11,7.0,WeatherDisplay:10.37,2013-02-23 13:11:00,
2013-02-23 08:15:00,34.9,34.6,30.12,NE,49,2.7,3.5,99,0.01,RA,OVC,0.11,7.0,WeatherDisplay:10.37,2013-02-23 13:15:00,
2013-02-23 08:16:00,34.9,34.6,30.12,NNE,32,4.8,6.9,99,0.01,RA,OVC,0.11,9.0,WeatherDisplay:10.37,2013-02-23 13:16:00,
2013-02-23 08:17:00,34.9,34.6,30.12,NNE,32,4.7,6.0,99,0.02,RA,OVC,0.12,9.0,WeatherDisplay:10.37,2013-02-23 13:17:00,
2013-02-23 08:20:00,34.9,34.6,30.11,NNE,32,5.8,7.0,99,0.02,RA,OVC,0.12,11.0,WeatherDisplay:10.37,2013-02-23 13:20:00,
2013-02-23 08:22:00,34.9,34.6,30.11,NNE,32,5.7,8.1,99,0.02,RA,OVC,0.12,11.0,WeatherDisplay:10.37,2013-02-23 13:22:00,
2013-02-23 08:23:00,34.9,34.6,30.11,NNE,32,4.9,6.9,99,0.02,RA,OVC,0.12,12.0,WeatherDisplay:10.37,2013-02-23 13:23:00,
2013-02-23 08:24:00,34.9,34.6,30.11,NNE,21,5.9,6.9,99,0.02,RA,OVC,0.12,12.0,WeatherDisplay:10.37,2013-02-23 13:24:00,
2013-02-23 08:28:00,34.9,34.6,30.11,NNE,13,4.5,7.0,99,0.02,OVC,,0.12,19.0,WeatherDisplay:10.37,2013-02-23 13:28:00,
2013-02-23 08:29:00,34.9,34.6,30.11,NNE,13,6.4,9.2,99,0.02,OVC,,0.12,19.0,WeatherDisplay:10.37,2013-02-23 13:29:00,
2013-02-23 08:30:00,34.9,34.6,30.11,NNE,19,6.0,10.0,99,0.00,OVC,OVC,0.12,21.0,WeatherDisplay:10.37,2013-02-23 13:30:00,
2013-02-23 08:31:00,34.9,34.6,30.11,NNE,13,5.0,9.2,99,0.02,OVC,,0.13,21.0,WeatherDisplay:10.37,2013-02-23 13:31:00,
2013-02-23 08:34:00,34.9,34.6,30.10,NNE,14,5.7,11.5,99,0.03,RA,OVC,0.13,23.0,WeatherDisplay:10.37,2013-02-23 13:34:00,
2013-02-23 08:35:00,34.9,34.6,30.10,NNE,14,5.3,11.5,99,0.03,RA,OVC,0.13,25.0,WeatherDisplay:10.37,2013-02-23 13:35:00,
2013-02-23 08:37:00,34.7,34.4,30.10,NNE,24,6.2,10.4,99,0.03,RA,OVC,0.13,25.0,WeatherDisplay:10.37,2013-02-23 13:37:00,
2013-02-23 08:39:00,34.7,34.4,30.10,NNE,22,4.2,9.2,99,0.03,RA,OVC,0.13,26.0,WeatherDisplay:10.37,2013-02-23 13:39:00,
2013-02-23 08:40:00,34.7,34.4,30.10,NNE,22,4.2,9.2,99,0.03,RA,OVC,0.13,26.0,WeatherDisplay:10.37,2013-02-23 13:40:00,
2013-02-23 08:42:00,34.9,34.6,30.10,NNE,22,4.3,6.9,99,0.03,OVC,,0.13,26.0,WeatherDisplay:10.37,2013-02-23 13:42:00,
2013-02-23 08:45:00,34.9,34.6,30.10,NNE,22,4.0,6.9,99,0.03,OVC,,0.13,18.0,WeatherDisplay:10.37,2013-02-23 13:45:00,
2013-02-23 08:49:00,34.9,34.6,30.11,NNE,20,4.2,5.8,99,0.03,OVC,,0.13,21.0,WeatherDisplay:10.37,2013-02-23 13:49:00,
2013-02-23 08:50:00,34.9,34.6,30.11,NNE,20,4.0,5.8,99,0.03,OVC,,0.13,25.0,WeatherDisplay:10.37,2013-02-23 13:50:00,
2013-02-23 08:52:00,34.9,34.6,30.11,NNE,18,4.3,4.6,99,0.03,OVC,,0.13,26.0,WeatherDisplay:10.37,2013-02-23 13:52:00,
2013-02-23 08:54:00,35.0,34.7,30.11,NNE,18,3.2,4.6,99,0.03,OVC,,0.13,28.0,WeatherDisplay:10.37,2013-02-23 13:54:00,
2013-02-23 08:56:00,35.0,34.7,30.11,NNE,18,3.5,4.0,99,0.03,OVC,,0.13,33.0,WeatherDisplay:10.37,2013-02-23 13:56:00,
2013-02-23 08:57:00,35.0,34.7,30.11,NNE,19,5.1,7.0,99,0.03,OVC,,0.13,40.0,WeatherDisplay:10.37,2013-02-23 13:57:00,
2013-02-23 08:58:00,35.0,34.7,30.11,NNE,21,5.9,6.9,99,0.03,OVC,,0.13,33.0,WeatherDisplay:10.37,2013-02-23 13:58:00,
2013-02-23 08:59:00,34.9,34.6,30.11,NNE,22,4.3,6.9,99,0.03,OVC,,0.13,33.0,WeatherDisplay:10.37,2013-02-23 13:59:00,
2013-02-23 09:02:00,35.0,34.7,30.11,NNE,22,4.9,5.8,99,0.03,OVC,,0.13,32.0,WeatherDisplay:10.37,2013-02-23 14:02:00,
2013-02-23 09:03:00,35.0,34.7,30.11,NNE,22,4.1,5.8,99,0.03,OVC,,0.13,30.0,WeatherDisplay:10.37,2013-02-23 14:03:00,
2013-02-23 09:04:00,35.0,34.7,30.11,NNE,22,3.6,5.8,99,0.03,OVC,,0.13,30.0,WeatherDisplay:10.37,2013-02-23 14:04:00,
2013-02-23 09:06:00,35.0,34.7,30.11,NNE,22,3.2,4.6,99,0.03,OVC,,0.13,32.0,WeatherDisplay:10.37,2013-02-23 14:06:00,
2013-02-23 09:08:00,35.0,34.7,30.11,NNE,22,3.1,4.6,99,0.03,OVC,,0.13,32.0,WeatherDisplay:10.37,2013-02-23 14:08:00,
2013-02-23 09:10:00,35.0,34.7,30.11,NNE,22,3.5,4.0,99,0.03,OVC,,0.13,28.0,WeatherDisplay:10.37,2013-02-23 14:10:00,
2013-02-23 09:12:00,35.2,34.9,30.11,NNE,22,4.2,5.0,99,0.02,OVC,,0.13,30.0,WeatherDisplay:10.37,2013-02-23 14:12:00,
2013-02-23 09:13:00,35.2,34.9,30.11,NNE,22,5.5,9.2,99,0.02,OVC,,0.13,32.0,WeatherDisplay:10.37,2013-02-23 14:13:00,
2013-02-23 09:15:00,35.2,34.9,30.11,NNE,22,6.0,9.0,99,0.00,OVC,OVC,0.13,37.0,WeatherDisplay:10.37,2013-02-23 14:15:00,
2013-02-23 09:21:00,35.2,34.9,30.10,NNE,22,2.6,3.5,99,0.02,RA,OVC,0.14,32.0,WeatherDisplay:10.37,2013-02-23 14:21:00,
2013-02-23 09:22:00,35.2,34.9,30.10,NNE,22,3.4,4.6,99,0.02,RA,OVC,0.14,33.0,WeatherDisplay:10.37,2013-02-23 14:22:00,
2013-02-23 09:24:00,35.2,34.9,30.10,NNE,22,2.8,3.5,99,0.02,RA,OVC,0.14,33.0,WeatherDisplay:10.37,2013-02-23 14:24:00,
2013-02-23 09:26:00,35.2,34.9,30.10,NNE,22,4.3,4.6,99,0.02,RA,OVC,0.14,32.0,WeatherDisplay:10.37,2013-02-23 14:26:00,
2013-02-23 09:27:00,35.2,34.9,30.10,NNE,22,4.3,5.8,99,0.02,OVC,,0.14,32.0,WeatherDisplay:10.37,2013-02-23 14:27:00,
2013-02-23 09:31:00,35.2,34.9,30.10,NNE,22,4.1,5.8,99,0.01,OVC,,0.14,53.0,WeatherDisplay:10.37,2013-02-23 14:31:00,
2013-02-23 09:32:00,35.2,34.9,30.10,NNE,22,3.3,4.6,99,0.01,OVC,,0.14,42.0,WeatherDisplay:10.37,2013-02-23 14:32:00,
2013-02-23 09:33:00,35.3,35.0,30.10,NNE,22,3.1,4.0,99,0.01,OVC,,0.14,35.0,WeatherDisplay:10.37,2013-02-23 14:33:00,
2013-02-23 09:38:00,35.3,35.0,30.10,NNE,22,2.6,3.5,99,0.01,OVC,,0.14,39.0,WeatherDisplay:10.37,2013-02-23 14:38:00,
2013-02-23 09:39:00,35.3,35.0,30.10,NNE,22,2.3,3.5,99,0.01,OVC,,0.14,39.0,WeatherDisplay:10.37,2013-02-23 14:39:00,
2013-02-23 09:42:00,35.5,35.2,30.10,NNE,22,0.3,3.5,99,0.01,OVC,,0.14,46.0,WeatherDisplay:10.37,2013-02-23 14:42:00,
2013-02-23 09:44:00,35.5,35.2,30.10,NNE,22,2.3,3.5,99,0.01,OVC,,0.14,46.0,WeatherDisplay:10.37,2013-02-23 14:44:00,
2013-02-23 09:45:00,35.5,35.2,30.10,NNE,22,2.3,3.5,99,0.01,OVC,,0.14,46.0,WeatherDisplay:10.37,2013-02-23 14:45:00,
2013-02-23 09:46:00,35.5,35.2,30.10,NNE,22,3.1,3.5,99,0.01,OVC,,0.14,49.0,WeatherDisplay:10.37,2013-02-23 14:46:00,
2013-02-23 09:49:00,35.5,35.2,30.09,NNE,22,3.8,5.0,99,0.01,OVC,,0.14,49.0,WeatherDisplay:10.37,2013-02-23 14:49:00,
2013-02-23 09:50:00,35.6,35.3,30.09,NNE,22,3.0,4.6,99,0.01,OVC,,0.14,60.0,WeatherDisplay:10.37,2013-02-23 14:50:00,
2013-02-23 09:52:00,35.6,35.3,30.09,NNE,22,1.1,2.3,99,0.01,OVC,,0.14,67.0,WeatherDisplay:10.37,2013-02-23 14:52:00,
2013-02-23 09:55:00,35.8,35.5,30.09,NNE,22,0.0,0.0,99,0.01,OVC,,0.14,42.0,WeatherDisplay:10.37,2013-02-23 14:55:00,
2013-02-23 09:56:00,35.8,35.5,30.09,NNE,22,0.0,0.0,99,0.01,OVC,,0.14,47.0,WeatherDisplay:10.37,2013-02-23 14:56:00,
2013-02-23 09:57:00,35.8,35.5,30.09,NNE,22,0.0,0.0,99,0.01,OVC,,0.14,51.0,WeatherDisplay:10.37,2013-02-23 14:57:00,
2013-02-23 10:01:00,35.8,35.5,30.09,NNE,22,1.6,3.5,99,0.01,OVC,,0.14,74.0,WeatherDisplay:10.37,2013-02-23 15:01:00,
2013-02-23 10:02:00,35.8,35.5,30.09,NNE,22,0.3,3.5,99,0.01,OVC,,0.14,70.0,WeatherDisplay:10.37,2013-02-23 15:02:00,
2013-02-23 10:03:00,35.8,35.5,30.09,NNE,22,0.0,3.5,99,0.01,OVC,,0.14,62.0,WeatherDisplay:10.37,2013-02-23 15:03:00,
2013-02-23 10:07:00,35.8,35.5,30.11,NNE,22,0.0,0.0,99,0.01,OVC,,0.14,54.0,WeatherDisplay:10.37,2013-02-23 15:07:00,
2013-02-23 10:08:00,35.9,35.6,30.11,NNE,22,0.0,0.0,99,0.01,OVC,,0.14,58.0,WeatherDisplay:10.37,2013-02-23 15:08:00,
2013-02-23 10:09:00,35.9,35.6,30.11,NNE,22,0.0,0.0,99,0.01,OVC,,0.14,58.0,WeatherDisplay:10.37,2013-02-23 15:09:00,
2013-02-23 10:12:00,35.9,35.6,30.11,NNE,22,3.3,4.0,99,0.01,OVC,,0.14,54.0,WeatherDisplay:10.37,2013-02-23 15:12:00,
2013-02-23 10:13:00,35.9,35.6,30.11,NNE,22,3.2,3.5,99,0.01,OVC,,0.14,49.0,WeatherDisplay:10.37,2013-02-23 15:13:00,
2013-02-23 10:15:00,35.9,35.6,30.11,NNE,22,2.9,3.5,99,0.01,OVC,,0.14,39.0,WeatherDisplay:10.37,2013-02-23 15:15:00,
2013-02-23 10:17:00,35.9,35.6,30.11,NNE,22,3.7,4.6,99,0.00,OVC,,0.14,30.0,WeatherDisplay:10.37,2013-02-23 15:17:00,
2013-02-23 10:20:00,35.9,35.6,30.12,NNE,22,1.9,3.5,99,0.00,OVC,,0.14,35.0,WeatherDisplay:10.37,2013-02-23 15:20:00,
2013-02-23 10:21:00,35.9,35.6,30.12,NNE,22,1.6,3.5,99,0.00,OVC,,0.14,39.0,WeatherDisplay:10.37,2013-02-23 15:21:00,
2013-02-23 10:22:00,35.9,35.6,30.12,NNE,22,0.7,2.3,99,0.00,OVC,,0.14,46.0,WeatherDisplay:10.37,2013-02-23 15:22:00,
2013-02-23 10:26:00,35.9,35.6,30.12,NNE,22,0.0,0.0,99,0.00,OVC,,0.14,56.0,WeatherDisplay:10.37,2013-02-23 15:26:00,
2013-02-23 10:27:00,35.9,35.6,30.12,NNE,22,0.0,0.0,99,0.00,OVC,,0.14,56.0,WeatherDisplay:10.37,2013-02-23 15:27:00,
2013-02-23 10:29:00,35.9,35.6,30.12,NNE,22,1.0,2.0,99,0.00,OVC,,0.14,46.0,WeatherDisplay:10.37,2013-02-23 15:29:00,
2013-02-23 10:31:00,35.9,35.6,30.12,NNE,22,1.8,3.5,99,0.00,OVC,,0.14,60.0,WeatherDisplay:10.37,2013-02-23 15:31:00,
2013-02-23 10:32:00,35.9,35.6,30.12,NNE,22,1.9,2.3,99,0.00,OVC,,0.14,60.0,WeatherDisplay:10.37,2013-02-23 15:32:00,
2013-02-23 10:34:00,35.9,35.6,30.11,NNE,22,0.0,2.3,99,0.00,OVC,,0.14,63.0,WeatherDisplay:10.37,2013-02-23 15:34:00,
2013-02-23 10:36:00,35.9,35.6,30.11,NNE,22,0.0,0.0,99,0.00,OVC,,0.14,62.0,WeatherDisplay:10.37,2013-02-23 15:36:00,
2013-02-23 10:37:00,35.9,35.6,30.11,NNE,22,0.0,0.0,99,0.00,OVC,,0.14,72.0,WeatherDisplay:10.37,2013-02-23 15:37:00,
2013-02-23 10:39:00,35.9,35.6,30.01,NNE,22,0.0,0.0,99,0.00,OVC,,0.14,74.0,WeatherDisplay:10.37,2013-02-23 15:39:00,
2013-02-23 10:42:00,35.9,35.6,30.01,NNE,22,0.0,0.0,99,0.00,OVC,,0.14,74.0,WeatherDisplay:10.37,2013-02-23 15:42:00,
2013-02-23 10:45:00,35.9,35.4,30.01,NNE,22,1.0,3.0,98,0.00,OVC,OVC,0.14,72.0,WeatherDisplay:10.37,2013-02-23 15:45:00,
2013-02-23 10:47:00,36.0,35.7,30.01,NNE,22,3.0,3.5,99,0.00,OVC,,0.14,77.0,WeatherDisplay:10.37,2013-02-23 15:47:00,
2013-02-23 10:48:00,36.2,35.9,30.00,NNE,22,3.1,3.5,99,0.00,OVC,,0.14,81.0,WeatherDisplay:10.37,2013-02-23 15:48:00,
2013-02-23 10:50:00,36.2,35.9,30.00,NNE,22,1.7,4.0,99,0.00,OVC,,0.14,125.0,WeatherDisplay:10.37,2013-02-23 15:50:00,
2013-02-23 10:52:00,36.2,35.7,30.00,NNE,22,2.4,4.0,98,0.00,OVC,,0.14,158.0,WeatherDisplay:10.37,2013-02-23 15:52:00,
2013-02-23 10:53:00,36.2,35.7,30.00,NNE,22,2.6,3.5,98,0.00,OVC,,0.14,158.0,WeatherDisplay:10.37,2013-02-23 15:53:00,
2013-02-23 10:54:00,36.2,35.7,30.00,NNE,22,2.2,3.5,98,0.00,OVC,,0.14,176.0,WeatherDisplay:10.37,2013-02-23 15:54:00,
2013-02-23 10:56:00,36.2,35.7,30.00,NNE,22,3.1,3.5,98,0.00,OVC,,0.14,181.0,WeatherDisplay:10.37,2013-02-23 15:56:00,
2013-02-23 10:57:00,36.3,35.8,30.00,NNE,22,3.8,5.0,98,0.00,OVC,,0.15,183.0,WeatherDisplay:10.37,2013-02-23 15:57:00,
2013-02-23 10:58:00,36.3,36.0,30.00,NNE,22,3.9,5.0,99,0.01,RA,OVC,0.15,183.0,WeatherDisplay:10.37,2013-02-23 15:58:00,
2013-02-23 11:02:00,36.6,36.3,30.00,NNE,22,3.2,3.5,99,0.01,RA,OVC,0.15,146.0,WeatherDisplay:10.37,2013-02-23 16:02:00,
2013-02-23 11:03:00,36.6,36.3,30.00,NNE,22,3.5,5.0,99,0.01,RA,OVC,0.15,183.0,WeatherDisplay:10.37,2013-02-23 16:03:00,
2013-02-23 11:04:00,36.6,36.1,30.00,NNE,22,4.2,5.0,98,0.01,RA,OVC,0.15,192.0,WeatherDisplay:10.37,2013-02-23 16:04:00,
2013-02-23 11:05:00,36.6,36.3,30.00,NNE,22,4.0,4.6,99,0.01,RA,OVC,0.15,188.0,WeatherDisplay:10.37,2013-02-23 16:05:00,
2013-02-23 11:09:00,36.6,36.1,29.98,NNE,22,3.3,3.5,98,0.01,OVC,,0.15,135.0,WeatherDisplay:10.37,2013-02-23 16:09:00,
2013-02-23 11:10:00,36.8,36.5,29.98,NNE,22,3.3,4.6,99,0.01,OVC,,0.15,141.0,WeatherDisplay:10.37,2013-02-23 16:10:00,
2013-02-23 11:11:00,36.8,36.3,29.98,NNE,22,1.0,4.0,98,0.01,OVC,,0.15,135.0,WeatherDisplay:10.37,2013-02-23 16:11:00,
2013-02-23 11:13:00,36.9,36.4,29.98,NNE,22,3.0,4.0,98,0.01,OVC,,0.15,116.0,WeatherDisplay:10.37,2013-02-23 16:13:00,
2013-02-23 11:14:00,36.8,36.3,29.98,NNE,22,2.0,3.5,98,0.01,OVC,,0.15,114.0,WeatherDisplay:10.37,2013-02-23 16:14:00,
2013-02-23 11:16:00,36.8,36.3,29.98,NNE,22,0.0,0.0,98,0.01,OVC,,0.15,114.0,WeatherDisplay:10.37,2013-02-23 16:16:00,
2013-02-23 11:17:00,36.9,36.4,29.98,NNE,22,0.6,4.0,98,0.01,OVC,,0.15,113.0,WeatherDisplay:10.37,2013-02-23 16:17:00,
2013-02-23 11:19:00,36.9,36.4,29.98,NNE,22,4.3,5.0,98,0.01,OVC,,0.15,98.0,WeatherDisplay:10.37,2013-02-23 16:19:00,
2013-02-23 11:22:00,36.9,36.4,29.99,NNE,22,4.5,4.6,98,0.01,OVC,,0.15,105.0,WeatherDisplay:10.37,2013-02-23 16:22:00,
2013-02-23 11:23:00,36.9,36.4,29.99,NNE,22,3.5,3.5,98,0.01,OVC,,0.15,100.0,WeatherDisplay:10.37,2013-02-23 16:23:00,
2013-02-23 11:25:00,36.9,36.4,29.99,NNE,22,4.3,6.0,98,0.01,OVC,,0.15,81.0,WeatherDisplay:10.37,2013-02-23 16:25:00,
2013-02-23 11:27:00,36.9,36.4,29.99,NNE,22,3.1,4.0,98,0.01,OVC,,0.15,86.0,WeatherDisplay:10.37,2013-02-23 16:27:00,
2013-02-23 11:29:00,37.0,36.5,29.99,NNE,22,2.7,3.5,98,0.01,OVC,,0.15,76.0,WeatherDisplay:10.37,2013-02-23 16:29:00,
2013-02-23 11:30:00,37.2,36.7,29.99,NNE,22,2.8,3.5,98,0.01,OVC,,0.15,62.0,WeatherDisplay:10.37,2013-02-23 16:30:00,
2013-02-23 11:31:00,37.2,36.7,29.99,NNE,22,3.0,3.5,98,0.01,OVC,,0.15,54.0,WeatherDisplay:10.37,2013-02-23 16:31:00,
2013-02-23 11:32:00,37.2,36.7,29.99,NNE,22,3.2,4.0,98,0.01,OVC,,0.15,49.0,WeatherDisplay:10.37,2013-02-23 16:32:00,
2013-02-23 11:35:00,37.3,36.8,29.99,NNE,21,3.6,5.8,98,0.01,OVC,,0.15,70.0,WeatherDisplay:10.37,2013-02-23 16:35:00,
2013-02-23 11:36:00,37.3,36.8,30.00,NNE,21,3.5,3.5,98,0.01,OVC,,0.15,70.0,WeatherDisplay:10.37,2013-02-23 16:36:00,
2013-02-23 11:38:00,37.3,36.8,30.00,NNE,21,3.0,3.5,98,0.01,OVC,,0.15,79.0,WeatherDisplay:10.37,2013-02-23 16:38:00,
2013-02-23 11:39:00,37.3,36.8,30.00,NNE,21,3.2,4.0,98,0.01,OVC,,0.15,83.0,WeatherDisplay:10.37,2013-02-23 16:39:00,
2013-02-23 11:40:00,37.3,36.8,30.00,NNE,21,2.8,3.5,98,0.01,OVC,,0.15,83.0,WeatherDisplay:10.37,2013-02-23 16:40:00,
2013-02-23 11:42:00,37.3,36.8,30.00,NNE,21,2.8,4.0,98,0.01,OVC,,0.15,79.0,WeatherDisplay:10.37,2013-02-23 16:42:00,
2013-02-23 11:44:00,37.2,36.7,30.00,NNE,21,2.4,3.5,98,0.01,OVC,,0.15,79.0,WeatherDisplay:10.37,2013-02-23 16:44:00,
2013-02-23 11:45:00,37.2,36.7,30.00,NNE,21,1.4,3.5,98,0.01,OVC,,0.15,79.0,WeatherDisplay:10.37,2013-02-23 16:45:00,
2013-02-23 11:47:00,37.3,36.8,30.00,NNE,21,2.7,3.5,98,0.01,OVC,,0.15,81.0,WeatherDisplay:10.37,2013-02-23 16:47:00,
2013-02-23 11:48:00,37.3,36.8,30.00,NNE,21,3.0,3.5,98,0.01,OVC,,0.15,84.0,WeatherDisplay:10.37,2013-02-23 16:48:00,
2013-02-23 11:50:00,37.5,37.0,29.99,NNE,21,3.2,3.5,98,0.01,OVC,,0.15,113.0,WeatherDisplay:10.37,2013-02-23 16:50:00,
2013-02-23 11:52:00,37.5,37.0,29.99,NNE,21,2.5,3.5,98,0.01,OVC,,0.15,121.0,WeatherDisplay:10.37,2013-02-23 16:52:00,
2013-02-23 11:53:00,37.5,37.0,29.99,NNE,21,2.5,3.5,98,0.01,OVC,,0.15,111.0,WeatherDisplay:10.37,2013-02-23 16:53:00,
2013-02-23 11:54:00,37.5,37.0,29.99,NNE,21,3.8,4.0,98,0.01,OVC,,0.15,88.0,WeatherDisplay:10.37,2013-02-23 16:54:00,
2013-02-23 11:56:00,37.5,37.0,29.99,NNE,21,4.6,5.8,98,0.01,OVC,,0.15,72.0,WeatherDisplay:10.37,2013-02-23 16:56:00,
2013-02-23 11:57:00,37.5,37.0,29.99,NNE,21,3.7,4.6,98,0.01,OVC,,0.15,65.0,WeatherDisplay:10.37,2013-02-23 16:57:00,
2013-02-23 12:00:00,37.5,37.0,29.99,NNE,21,2.8,5.0,98,0.00,OVC,,0.15,62.0,WeatherDisplay:10.37,2013-02-23 17:00:00,
2013-02-23 12:01:00,37.5,37.0,29.99,NNE,21,3.5,4.6,98,0.00,CLR,OVC,0.15,67.0,WeatherDisplay:10.37,2013-02-23 17:01:00,
2013-02-23 12:02:00,37.5,37.0,29.99,NNE,21,2.6,4.0,98,0.00,CLR,OVC,0.15,74.0,WeatherDisplay:10.37,2013-02-23 17:02:00,
2013-02-23 12:07:00,37.5,36.7,29.98,NNE,21,0.0,0.0,97,0.00,CLR,OVC,0.15,60.0,WeatherDisplay:10.37,2013-02-23 17:07:00,
2013-02-23 12:08:00,37.5,36.7,29.98,NNE,21,0.0,0.0,97,0.00,CLR,OVC,0.15,56.0,WeatherDisplay:10.37,2013-02-23 17:08:00,
2013-02-23 12:09:00,37.5,36.7,29.98,NNE,21,0.0,0.0,97,0.00,CLR,OVC,0.15,62.0,WeatherDisplay:10.37,2013-02-23 17:09:00,
2013-02-23 12:10:00,37.5,36.7,29.98,NNE,21,0.0,0.0,97,0.00,CLR,OVC,0.15,65.0,WeatherDisplay:10.37,2013-02-23 17:10:00,
2013-02-23 12:14:00,37.8,37.3,29.98,NNE,21,2.8,4.0,98,0.00,CLR,OVC,0.15,69.0,WeatherDisplay:10.37,2013-02-23 17:14:00,
2013-02-23 12:15:00,37.7,37.2,29.98,NNE,21,2.0,5.0,98,0.00,CLR,OVC,0.15,67.0,WeatherDisplay:10.37,2013-02-23 17:15:00,
2013-02-23 12:20:00,37.6,36.8,29.97,NNE,21,0.0,4.6,97,0.00,RA,OVC,0.15,69.0,WeatherDisplay:10.37,2013-02-23 17:20:00,
2013-02-23 12:21:00,37.6,36.8,29.97,NNE,21,0.0,0.0,97,0.00,RA,OVC,0.15,70.0,WeatherDisplay:10.37,2013-02-23 17:21:00,
2013-02-23 12:22:00,37.6,36.8,29.97,NNE,21,0.0,0.0,97,0.00,RA,OVC,0.15,69.0,WeatherDisplay:10.37,2013-02-23 17:22:00,
2013-02-23 12:25:00,37.6,36.8,29.97,NNE,21,0.0,0.0,97,0.00,RA,OVC,0.15,65.0,WeatherDisplay:10.37,2013-02-23 17:25:00,
2013-02-23 12:27:00,37.8,37.0,29.97,NNE,21,0.0,0.0,97,0.00,RA,OVC,0.15,65.0,WeatherDisplay:10.37,2013-02-23 17:27:00,
2013-02-23 12:29:00,37.8,37.0,29.97,NNE,21,0.0,0.0,97,0.00,RA,OVC,0.15,63.0,WeatherDisplay:10.37,2013-02-23 17:29:00,
2013-02-23 12:30:00,37.8,37.0,29.97,NNE,21,0.0,0.0,97,0.00,CLR,OVC,0.15,63.0,WeatherDisplay:10.37,2013-02-23 17:30:00,
2013-02-23 12:33:00,37.9,37.1,29.97,NNE,21,0.0,0.0,97,0.00,FEW,OVC,0.15,62.0,WeatherDisplay:10.37,2013-02-23 17:33:00,
2013-02-23 12:35:00,37.9,37.1,29.97,NNE,21,0.0,0.0,97,0.00,FEW,OVC,0.15,63.0,WeatherDisplay:10.37,2013-02-23 17:35:00,
2013-02-23 12:36:00,38.0,37.2,29.97,NNE,21,1.5,4.0,97,0.00,FEW,OVC,0.15,63.0,WeatherDisplay:10.37,2013-02-23 17:36:00,
2013-02-23 12:38:00,38.0,37.2,29.97,NNE,21,1.5,3.5,97,0.00,FEW,OVC,0.15,74.0,WeatherDisplay:10.37,2013-02-23 17:38:00,
2013-02-23 12:41:00,38.2,37.4,29.97,NNE,21,3.5,3.5,97,0.00,CLR,OVC,0.15,84.0,WeatherDisplay:10.37,2013-02-23 17:41:00,
2013-02-23 12:44:00,38.2,37.4,29.97,NNE,21,3.1,3.5,97,0.00,FEW,OVC,0.15,86.0,WeatherDisplay:10.37,2013-02-23 17:44:00,
2013-02-23 12:47:00,38.3,37.5,29.97,NNE,21,0.8,3.0,97,0.00,FEW,OVC,0.15,93.0,WeatherDisplay:10.37,2013-02-23 17:47:00,
2013-02-23 12:48:00,38.3,37.5,29.97,NNE,21,2.3,3.5,97,0.00,FEW,OVC,0.15,90.0,WeatherDisplay:10.37,2013-02-23 17:48:00,
2013-02-23 12:49:00,38.3,37.5,29.97,NNE,21,0.2,3.5,97,0.00,FEW,OVC,0.15,84.0,WeatherDisplay:10.37,2013-02-23 17:49:00,
2013-02-23 12:52:00,38.5,37.7,29.97,NNE,21,4.0,4.6,97,0.00,BKN,OVC,0.15,58.0,WeatherDisplay:10.37,2013-02-23 17:52:00,
2013-02-23 12:53:00,38.5,37.7,29.97,NNE,21,4.0,4.6,97,0.00,BKN,OVC,0.15,54.0,WeatherDisplay:10.37,2013-02-23 17:53:00,
2013-02-23 12:55:00,38.3,37.5,29.97,NNE,21,4.9,6.0,97,0.00,BKN,OVC,0.15,62.0,WeatherDisplay:10.37,2013-02-23 17:55:00,
2013-02-23 12:56:00,38.3,37.5,29.97,NNE,21,4.9,5.8,97,0.00,BKN,OVC,0.15,65.0,WeatherDisplay:10.37,2013-02-23 17:56:00,
2013-02-23 12:58:00,38.3,37.5,29.97,NNE,21,2.5,3.5,97,0.00,BKN,OVC,0.15,54.0,WeatherDisplay:10.37,2013-02-23 17:58:00,
2013-02-23 13:00:00,38.3,37.5,29.97,NNE,21,2.6,3.5,97,0.00,BKN,OVC,0.15,51.0,WeatherDisplay:10.37,2013-02-23 18:00:00,
2013-02-23 13:01:00,38.3,37.5,29.97,NNE,21,2.3,3.5,97,0.00,BKN,OVC,0.15,51.0,WeatherDisplay:10.37,2013-02-23 18:01:00,
2013-02-23 13:03:00,38.3,37.5,29.97,NNE,21,2.1,3.5,97,0.00,BKN,OVC,0.15,58.0,WeatherDisplay:10.37,2013-02-23 18:03:00,
2013-02-23 13:06:00,38.5,37.7,29.97,NNE,21,2.4,3.5,97,0.00,BKN,OVC,0.15,63.0,WeatherDisplay:10.37,2013-02-23 18:06:00,
2013-02-23 13:07:00,38.5,37.7,29.97,NNE,21,1.9,2.3,97,0.00,BKN,OVC,0.15,62.0,WeatherDisplay:10.37,2013-02-23 18:07:00,
2013-02-23 13:09:00,38.6,37.8,29.97,NNE,21,1.8,3.5,97,0.00,BKN,OVC,0.15,65.0,WeatherDisplay:10.37,2013-02-23 18:09:00,
2013-02-23 13:10:00,38.6,37.8,29.97,NNE,21,1.5,3.5,97,0.00,BKN,OVC,0.15,63.0,WeatherDisplay:10.37,2013-02-23 18:10:00,
2013-02-23 13:11:00,38.6,37.8,29.97,NNE,21,0.4,2.3,97,0.00,BKN,OVC,0.15,60.0,WeatherDisplay:10.37,2013-02-23 18:11:00,
2013-02-23 13:13:00,38.6,37.8,29.97,NNE,21,0.0,0.0,97,0.00,BKN,OVC,0.15,69.0,WeatherDisplay:10.37,2013-02-23 18:13:00,
2013-02-23 13:14:00,38.6,37.8,29.97,NNE,21,0.0,0.0,97,0.00,BKN,OVC,0.15,74.0,WeatherDisplay:10.37,2013-02-23 18:14:00,
2013-02-23 13:15:00,38.6,37.8,29.97,NNE,21,0.0,0.0,97,0.00,BKN,OVC,0.15,70.0,WeatherDisplay:10.37,2013-02-23 18:15:00,
2013-02-23 13:19:00,38.6,37.8,29.97,NNE,21,0.0,0.0,97,0.00,BKN,OVC,0.15,72.0,WeatherDisplay:10.37,2013-02-23 18:19:00,
2013-02-23 13:21:00,38.6,37.8,29.97,NNE,21,2.7,3.0,97,0.00,BKN,OVC,0.15,65.0,WeatherDisplay:10.37,2013-02-23 18:21:00,
2013-02-23 13:22:00,38.6,37.8,29.97,NNE,21,3.3,4.0,97,0.00,BKN,OVC,0.15,65.0,WeatherDisplay:10.37,2013-02-23 18:22:00,
2013-02-23 13:24:00,38.6,37.6,29.95,NNE,21,3.6,4.0,96,0.00,BKN,OVC,0.15,60.0,WeatherDisplay:10.37,2013-02-23 18:24:00,
2013-02-23 13:25:00,38.6,37.6,29.95,NNE,21,3.6,4.0,96,0.00,BKN,OVC,0.15,60.0,WeatherDisplay:10.37,2013-02-23 18:25:00,
2013-02-23 13:29:00,38.8,37.8,29.95,NNE,21,1.8,3.0,96,0.00,BKN,OVC,0.15,62.0,WeatherDisplay:10.37,2013-02-23 18:29:00,
2013-02-23 13:30:00,38.8,37.8,29.95,NNE,21,2.4,4.0,96,0.00,BKN,OVC,0.15,62.0,WeatherDisplay:10.37,2013-02-23 18:30:00,
2013-02-23 13:31:00,38.8,38.0,29.95,NNE,21,3.1,3.5,97,0.00,BKN,OVC,0.15,60.0,WeatherDisplay:10.37,2013-02-23 18:31:00,
2013-02-23 13:35:00,38.9,37.9,29.96,NNE,21,1.6,3.5,96,0.00,BKN,OVC,0.15,58.0,WeatherDisplay:10.37,2013-02-23 18:35:00,
2013-02-23 13:37:00,39.1,38.3,29.96,NNE,21,1.6,3.5,97,0.00,BKN,OVC,0.15,58.0,WeatherDisplay:10.37,2013-02-23 18:37:00,
2013-02-23 13:38:00,39.1,38.1,29.96,NNE,21,2.3,3.5,96,0.00,BKN,OVC,0.15,60.0,WeatherDisplay:10.37,2013-02-23 18:38:00,
2013-02-23 13:42:00,38.9,37.9,29.96,NNE,21,0.0,0.0,96,0.00,BKN,OVC,0.15,77.0,WeatherDisplay:10.37,2013-02-23 18:42:00,
2013-02-23 13:44:00,38.9,37.9,29.96,NNE,21,0.0,0.0,96,0.00,BKN,OVC,0.15,86.0,WeatherDisplay:10.37,2013-02-23 18:44:00,
2013-02-23 13:47:00,39.1,38.1,29.96,NNE,21,0.0,0.0,96,0.00,BKN,OVC,0.15,81.0,WeatherDisplay:10.37,2013-02-23 18:47:00,
2013-02-23 13:48:00,39.1,38.1,29.96,NNE,21,0.0,0.0,96,0.00,BKN,OVC,0.15,81.0,WeatherDisplay:10.37,2013-02-23 18:48:00,
2013-02-23 13:49:00,39.1,38.1,29.94,NNE,21,0.0,0.0,96,0.00,BKN,OVC,0.15,81.0,WeatherDisplay:10.37,2013-02-23 18:49:00,
2013-02-23 13:52:00,39.2,38.2,29.94,NNE,21,2.9,3.5,96,0.00,BKN,OVC,0.15,90.0,WeatherDisplay:10.37,2013-02-23 18:52:00,
2013-02-23 13:53:00,39.2,38.2,29.94,NNE,21,2.2,3.5,96,0.00,BKN,OVC,0.15,109.0,WeatherDisplay:10.37,2013-02-23 18:53:00,
2013-02-23 13:55:00,39.2,38.2,29.94,NNE,21,0.4,2.3,96,0.00,BKN,OVC,0.15,107.0,WeatherDisplay:10.37,2013-02-23 18:55:00,
2013-02-23 13:57:00,39.2,38.2,29.94,NNE,21,0.0,1.0,96,0.00,BKN,OVC,0.15,97.0,WeatherDisplay:10.37,2013-02-23 18:57:00,
2013-02-23 13:58:00,39.2,38.2,29.94,NNE,21,2.0,3.5,96,0.00,BKN,OVC,0.15,97.0,WeatherDisplay:10.37,2013-02-23 18:58:00,
2013-02-23 13:59:00,39.2,38.2,29.94,NNE,21,1.7,3.5,96,0.00,BKN,OVC,0.15,91.0,WeatherDisplay:10.37,2013-02-23 18:59:00,
2013-02-23 14:01:00,39.2,38.2,29.94,NNE,21,3.0,3.5,96,0.00,BKN,OVC,0.15,83.0,WeatherDisplay:10.37,2013-02-23 19:01:00,
2013-02-23 14:03:00,39.3,38.3,29.94,NNE,21,3.0,3.5,96,0.00,BKN,OVC,0.15,84.0,WeatherDisplay:10.37,2013-02-23 19:03:00,
2013-02-23 14:04:00,39.3,38.3,29.94,NNE,21,2.6,3.5,96,0.00,BKN,OVC,0.15,70.0,WeatherDisplay:10.37,2013-02-23 19:04:00,
2013-02-23 14:05:00,39.3,38.3,29.94,NNE,21,2.7,3.5,96,0.00,BKN,OVC,0.15,58.0,WeatherDisplay:10.37,2013-02-23 19:05:00,
2013-02-23 14:08:00,39.3,38.3,29.93,NNE,21,4.1,4.1,96,0.00,BKN,OVC,0.15,54.0,WeatherDisplay:10.37,2013-02-23 19:08:00,
2013-02-23 14:09:00,39.3,38.3,29.93,NNE,21,3.6,4.6,96,0.00,BKN,OVC,0.15,53.0,WeatherDisplay:10.37,2013-02-23 19:09:00,
2013-02-23 14:14:00,39.2,38.2,29.93,NNE,21,0.0,0.0,96,0.00,BKN,OVC,0.15,53.0,WeatherDisplay:10.37,2013-02-23 19:14:00,
2013-02-23 14:15:00,39.3,38.3,29.93,NNE,21,0.0,0.0,96,0.00,BKN,OVC,0.15,58.0,WeatherDisplay:10.37,2013-02-23 19:15:00,
2013-02-23 14:18:00,39.3,38.3,29.93,NNE,21,0.0,0.0,96,0.00,BKN,OVC,0.15,77.0,WeatherDisplay:10.37,2013-02-23 19:18:00,
2013-02-23 14:20:00,39.3,38.3,29.93,NNE,21,0.0,0.0,96,0.00,BKN,OVC,0.15,72.0,WeatherDisplay:10.37,2013-02-23 19:20:00,
2013-02-23 14:21:00,39.3,38.3,29.93,NNE,21,0.0,0.0,96,0.00,BKN,OVC,0.15,69.0,WeatherDisplay:10.37,2013-02-23 19:21:00,
2013-02-23 14:23:00,39.3,38.3,29.93,NNE,21,2.7,3.5,96,0.00,BKN,OVC,0.15,49.0,WeatherDisplay:10.37,2013-02-23 19:23:00,
2013-02-23 14:24:00,39.3,38.3,29.93,NNE,21,2.6,3.5,96,0.00,BKN,OVC,0.15,49.0,WeatherDisplay:10.37,2013-02-23 19:24:00,
2013-02-23 14:27:00,39.5,38.5,29.93,NNE,21,1.6,2.3,96,0.00,BKN,OVC,0.15,39.0,WeatherDisplay:10.37,2013-02-23 19:27:00,
2013-02-23 14:28:00,39.5,38.5,29.93,NNE,21,2.1,4.0,96,0.00,BKN,OVC,0.15,39.0,WeatherDisplay:10.37,2013-02-23 19:28:00,
2013-02-23 14:29:00,39.5,38.5,29.93,NNE,21,2.5,3.5,96,0.00,BKN,OVC,0.15,40.0,WeatherDisplay:10.37,2013-02-23 19:29:00,
2013-02-23 14:30:00,39.5,38.5,29.93,NNE,21,2.0,4.0,96,0.00,BKN,OVC,0.15,47.0,WeatherDisplay:10.37,2013-02-23 19:30:00,
2013-02-23 14:33:00,39.6,38.6,29.93,NNE,21,2.6,3.5,96,0.00,BKN,OVC,0.15,56.0,WeatherDisplay:10.37,2013-02-23 19:33:00,
2013-02-23 14:34:00,39.6,38.6,29.93,NNE,21,2.8,3.5,96,0.00,BKN,OVC,0.15,54.0,WeatherDisplay:10.37,2013-02-23 19:34:00,
2013-02-23 14:35:00,39.6,38.6,29.93,NNE,21,3.8,5.0,96,0.00,BKN,OVC,0.15,49.0,WeatherDisplay:10.37,2013-02-23 19:35:00,
2013-02-23 14:38:00,39.6,38.6,29.93,NNE,21,4.7,7.0,96,0.00,BKN,OVC,0.15,46.0,WeatherDisplay:10.37,2013-02-23 19:38:00,
2013-02-23 14:39:00,39.5,38.5,29.93,NNE,21,5.3,6.9,96,0.00,BKN,OVC,0.15,46.0,WeatherDisplay:10.37,2013-02-23 19:39:00,
2013-02-23 14:41:00,39.6,38.6,29.93,NNE,21,4.7,5.8,96,0.00,BKN,OVC,0.15,44.0,WeatherDisplay:10.37,2013-02-23 19:41:00,
2013-02-23 14:42:00,39.6,38.6,29.93,NNE,21,4.2,5.8,96,0.00,BKN,OVC,0.15,40.0,WeatherDisplay:10.37,2013-02-23 19:42:00,
2013-02-23 14:45:00,39.6,38.6,29.93,NNE,21,3.9,5.8,96,0.00,BKN,OVC,0.15,53.0,WeatherDisplay:10.37,2013-02-23 19:45:00,
2013-02-23 14:46:00,39.6,38.6,29.93,NNE,21,2.3,3.5,96,0.00,BKN,OVC,0.15,60.0,WeatherDisplay:10.37,2013-02-23 19:46:00,
2013-02-23 14:47:00,39.8,38.8,29.93,NNE,21,2.1,3.5,96,0.00,BKN,OVC,0.15,63.0,WeatherDisplay:10.37,2013-02-23 19:47:00,
2013-02-23 14:48:00,39.8,38.8,29.93,NNE,21,3.4,4.0,96,0.00,BKN,OVC,0.15,56.0,WeatherDisplay:10.37,2013-02-23 19:48:00,
2013-02-23 14:52:00,39.8,38.8,29.92,NNE,21,3.6,4.6,96,0.00,BKN,OVC,0.15,56.0,WeatherDisplay:10.37,2013-02-23 19:52:00,
2013-02-23 14:53:00,39.8,38.8,29.92,NNE,21,2.7,3.5,96,0.00,BKN,OVC,0.15,54.0,WeatherDisplay:10.37,2013-02-23 19:53:00,
2013-02-23 14:57:00,39.9,38.9,29.92,NNE,21,2.0,3.5,96,0.00,BKN,OVC,0.15,42.0,WeatherDisplay:10.37,2013-02-23 19:57:00,
2013-02-23 14:58:00,39.9,38.9,29.92,NNE,21,1.8,3.5,96,0.00,BKN,OVC,0.15,47.0,WeatherDisplay:10.37,2013-02-23 19:58:00,
2013-02-23 14:59:00,39.9,38.9,29.92,NNE,21,2.8,5.0,96,0.00,BKN,OVC,0.15,46.0,WeatherDisplay:10.37,2013-02-23 19:59:00,
2013-02-23 15:03:00,39.9,38.9,29.92,NNE,21,4.8,5.8,96,0.00,BKN,OVC,0.15,47.0,WeatherDisplay:10.37,2013-02-23 20:03:00,
2013-02-23 15:04:00,39.8,38.8,29.92,NNE,21,3.2,4.0,96,0.00,BKN,OVC,0.15,49.0,WeatherDisplay:10.37,2013-02-23 20:04:00,
2013-02-23 15:07:00,39.8,38.8,29.92,NNE,21,3.2,4.6,96,0.00,BKN,OVC,0.15,62.0,WeatherDisplay:10.37,2013-02-23 20:07:00,
2013-02-23 15:09:00,39.8,38.8,29.92,NNE,21,1.3,3.5,96,0.00,BKN,OVC,0.15,62.0,WeatherDisplay:10.37,2013-02-23 20:09:00,
2013-02-23 15:14:00,39.9,38.9,29.92,NNE,21,0.0,0.0,96,0.00,BKN,OVC,0.15,69.0,WeatherDisplay:10.37,2013-02-23 20:14:00,
2013-02-23 15:15:00,39.9,38.9,29.92,NNE,21,0.0,6.0,96,0.00,BKN,OVC,0.15,70.0,WeatherDisplay:10.37,2013-02-23 20:15:00,
2013-02-23 15:19:00,40.1,39.1,29.92,NNE,21,0.1,2.0,96,0.00,BKN,OVC,0.15,72.0,WeatherDisplay:10.37,2013-02-23 20:19:00,
2013-02-23 15:20:00,40.1,39.1,29.92,NNE,21,1.3,3.5,96,0.00,BKN,OVC,0.15,77.0,WeatherDisplay:10.37,2013-02-23 20:20:00,
2013-02-23 15:24:00,40.2,39.2,29.92,NNE,21,2.8,4.0,96,0.00,BKN,OVC,0.15,88.0,WeatherDisplay:10.37,2013-02-23 20:24:00,
2013-02-23 15:25:00,40.2,39.2,29.92,NNE,21,3.2,4.0,96,0.00,BKN,OVC,0.15,84.0,WeatherDisplay:10.37,2013-02-23 20:25:00,
2013-02-23 15:26:00,40.2,39.2,29.92,NNE,21,2.7,3.5,96,0.00,BKN,OVC,0.15,81.0,WeatherDisplay:10.37,2013-02-23 20:26:00,
2013-02-23 15:29:00,40.3,39.3,29.92,NNE,21,2.2,3.5,96,0.00,BKN,OVC,0.15,76.0,WeatherDisplay:10.37,2013-02-23 20:29:00,
2013-02-23 15:30:00,40.3,39.3,29.92,NNE,21,1.9,3.5,96,0.00,BKN,OVC,0.15,65.0,WeatherDisplay:10.37,2013-02-23 20:30:00,
2013-02-23 15:31:00,40.3,39.3,29.92,NNE,21,0.6,2.3,96,0.00,BKN,OVC,0.15,60.0,WeatherDisplay:10.37,2013-02-23 20:31:00,
2013-02-23 15:34:00,40.3,39.3,29.92,NNE,21,0.0,0.0,96,0.00,BKN,OVC,0.15,49.0,WeatherDisplay:10.37,2013-02-23 20:34:00,
2013-02-23 15:35:00,40.3,39.3,29.92,NNE,21,0.0,0.0,96,0.00,BKN,OVC,0.15,51.0,WeatherDisplay:10.37,2013-02-23 20:35:00,
2013-02-23 15:38:00,40.5,39.4,29.92,NNE,21,0.0,0.0,96,0.00,BKN,OVC,0.15,58.0,WeatherDisplay:10.37,2013-02-23 20:38:00,
2013-02-23 15:39:00,40.5,39.4,29.92,NNE,21,0.0,0.0,96,0.00,BKN,OVC,0.15,62.0,WeatherDisplay:10.37,2013-02-23 20:39:00,
2013-02-23 15:40:00,40.5,39.4,29.92,NNE,21,0.0,0.0,96,0.00,BKN,OVC,0.15,58.0,WeatherDisplay:10.37,2013-02-23 20:40:00,
2013-02-23 15:43:00,40.5,39.4,29.92,NNE,21,0.0,0.0,96,0.00,BKN,OVC,0.15,49.0,WeatherDisplay:10.37,2013-02-23 20:43:00,
2013-02-23 15:45:00,40.5,39.4,29.92,NNE,21,0.0,0.0,96,0.00,BKN,OVC,0.15,56.0,WeatherDisplay:10.37,2013-02-23 20:45:00,
2013-02-23 15:46:00,40.5,39.4,29.92,NNE,21,2.7,4.0,96,0.00,BKN,OVC,0.15,54.0,WeatherDisplay:10.37,2013-02-23 20:46:00,
2013-02-23 15:48:00,40.5,39.4,29.92,NNE,21,2.5,3.5,96,0.00,BKN,OVC,0.15,44.0,WeatherDisplay:10.37,2013-02-23 20:48:00,
2013-02-23 15:50:00,40.6,39.5,29.92,NNE,21,0.5,3.5,96,0.00,OVC,,0.15,26.0,WeatherDisplay:10.37,2013-02-23 20:50:00,
2013-02-23 15:51:00,40.6,39.5,29.92,NNE,21,0.0,1.2,96,0.00,OVC,,0.15,25.0,WeatherDisplay:10.37,2013-02-23 20:51:00,
2013-02-23 15:52:00,40.6,39.5,29.92,NNE,21,0.9,3.5,96,0.00,OVC,,0.15,23.0,WeatherDisplay:10.37,2013-02-23 20:52:00,
2013-02-23 15:53:00,40.6,39.5,29.92,NNE,21,1.9,3.5,96,0.00,OVC,,0.15,25.0,WeatherDisplay:10.37,2013-02-23 20:53:00,
2013-02-23 15:55:00,40.6,39.5,29.92,NNE,21,2.5,4.0,96,0.00,OVC,,0.15,30.0,WeatherDisplay:10.37,2013-02-23 20:55:00,
2013-02-23 15:56:00,40.6,39.5,29.92,NNE,21,2.9,3.5,96,0.00,OVC,,0.15,32.0,WeatherDisplay:10.37,2013-02-23 20:56:00,
2013-02-23 15:59:00,40.6,39.5,29.92,NNE,21,1.8,3.5,96,0.00,BKN,OVC,0.15,39.0,WeatherDisplay:10.37,2013-02-23 20:59:00,
2013-02-23 16:00:00,40.6,39.5,29.92,NNE,21,1.0,4.0,96,0.00,BKN,OVC,0.15,37.0,WeatherDisplay:10.37,2013-02-23 21:00:00,
2013-02-23 16:01:00,40.6,39.5,29.92,NNE,21,0.0,0.0,96,0.00,OVC,,0.15,35.0,WeatherDisplay:10.37,2013-02-23 21:01:00,
2013-02-23 16:04:00,40.6,39.5,29.92,NNE,21,0.0,0.0,96,0.00,BKN,OVC,0.15,39.0,WeatherDisplay:10.37,2013-02-23 21:04:00,
2013-02-23 16:05:00,40.8,39.7,29.92,NNE,21,2.0,3.0,96,0.00,BKN,OVC,0.15,40.0,WeatherDisplay:10.37,2013-02-23 21:05:00,
2013-02-23 16:06:00,40.8,39.7,29.92,NNE,21,2.6,3.5,96,0.00,BKN,OVC,0.15,40.0,WeatherDisplay:10.37,2013-02-23 21:06:00,
2013-02-23 16:07:00,40.8,39.7,29.92,NNE,21,2.0,3.5,96,0.00,BKN,OVC,0.15,40.0,WeatherDisplay:10.37,2013-02-23 21:07:00,
2013-02-23 16:11:00,40.8,39.7,29.91,NNE,21,0.0,0.0,96,0.00,OVC,,0.15,32.0,WeatherDisplay:10.37,2013-02-23 21:11:00,
2013-02-23 16:12:00,40.8,39.7,29.91,NNE,21,0.0,0.0,96,0.00,OVC,,0.15,30.0,WeatherDisplay:10.37,2013-02-23 21:12:00,
2013-02-23 16:14:00,40.8,39.7,29.91,NNE,21,0.0,0.0,96,0.00,OVC,,0.15,30.0,WeatherDisplay:10.37,2013-02-23 21:14:00,
2013-02-23 16:16:00,40.9,39.8,29.91,NNE,21,3.6,4.0,96,0.00,OVC,,0.15,32.0,WeatherDisplay:10.37,2013-02-23 21:16:00,
2013-02-23 16:17:00,40.9,39.8,29.91,NNE,21,2.9,4.0,96,0.00,OVC,,0.15,32.0,WeatherDisplay:10.37,2013-02-23 21:17:00,
2013-02-23 16:21:00,40.9,39.8,29.92,NNE,21,2.9,3.5,96,0.00,OVC,,0.15,35.0,WeatherDisplay:10.37,2013-02-23 21:21:00,
2013-02-23 16:22:00,40.9,39.8,29.92,NNE,21,3.4,3.5,96,0.00,OVC,,0.15,35.0,WeatherDisplay:10.37,2013-02-23 21:22:00,
2013-02-23 16:24:00,40.9,39.8,29.92,NNE,21,2.5,3.5,96,0.00,OVC,,0.15,39.0,WeatherDisplay:10.37,2013-02-23 21:24:00,
2013-02-23 16:27:00,40.9,39.8,29.92,NNE,21,0.0,0.0,96,0.00,BKN,OVC,0.15,40.0,WeatherDisplay:10.37,2013-02-23 21:27:00,
2013-02-23 16:28:00,40.9,39.8,29.92,NNE,21,0.0,0.0,96,0.00,BKN,OVC,0.15,40.0,WeatherDisplay:10.37,2013-02-23 21:28:00,
2013-02-23 16:29:00,40.9,39.8,29.92,NNE,21,0.0,0.0,96,0.00,BKN,OVC,0.15,40.0,WeatherDisplay:10.37,2013-02-23 21:29:00,
2013-02-23 16:30:00,41.0,40.0,29.92,NNE,21,0.0,4.0,96,0.00,BKN,OVC,0.15,40.0,WeatherDisplay:10.37,2013-02-23 21:30:00,
2013-02-23 16:32:00,41.1,40.0,29.92,NNE,21,0.2,2.3,96,0.00,BKN,OVC,0.15,40.0,WeatherDisplay:10.37,2013-02-23 21:32:00,
2013-02-23 16:34:00,41.1,40.0,29.91,NNE,21,0.0,0.0,96,0.00,BKN,OVC,0.15,39.0,WeatherDisplay:10.37,2013-02-23 21:34:00,
2013-02-23 16:36:00,41.1,40.0,29.91,NNE,21,0.0,0.0,96,0.00,OVC,,0.15,35.0,WeatherDisplay:10.37,2013-02-23 21:36:00,
2013-02-23 16:37:00,41.1,40.0,29.91,NNE,21,0.0,0.0,96,0.00,OVC,,0.15,35.0,WeatherDisplay:10.37,2013-02-23 21:37:00,
2013-02-23 16:38:00,41.1,40.0,29.91,NNE,21,0.0,0.0,96,0.00,OVC,,0.15,35.0,WeatherDisplay:10.37,2013-02-23 21:38:00,
2013-02-23 16:40:00,41.1,40.0,29.91,NNE,21,0.0,0.0,96,0.00,OVC,,0.15,35.0,WeatherDisplay:10.37,2013-02-23 21:40:00,
2013-02-23 16:44:00,41.1,40.0,29.91,NNE,21,0.0,0.0,96,0.00,OVC,,0.15,37.0,WeatherDisplay:10.37,2013-02-23 21:44:00,
2013-02-23 16:46:00,41.1,40.0,29.91,NNE,21,0.0,0.0,96,0.00,BKN,OVC,0.15,42.0,WeatherDisplay:10.37,2013-02-23 21:46:00,
2013-02-23 16:49:00,41.2,40.1,29.91,NNE,21,0.0,0.0,96,0.00,BKN,OVC,0.15,42.0,WeatherDisplay:10.37,2013-02-23 21:49:00,
2013-02-23 16:51:00,41.2,40.1,29.91,NNE,21,0.0,0.0,96,0.00,BKN,OVC,0.15,42.0,WeatherDisplay:10.37,2013-02-23 21:51:00,
2013-02-23 16:52:00,41.2,40.1,29.91,NNE,21,0.0,0.0,96,0.00,BKN,OVC,0.15,42.0,WeatherDisplay:10.37,2013-02-23 21:52:00,
2013-02-23 16:53:00,41.2,40.1,29.91,NNE,21,0.0,0.0,96,0.00,BKN,OVC,0.15,40.0,WeatherDisplay:10.37,2013-02-23 21:53:00,
2013-02-23 16:55:00,41.2,40.1,29.91,NNE,21,0.0,0.0,96,0.00,OVC,,0.15,40.0,WeatherDisplay:10.37,2013-02-23 21:55:00,
2013-02-23 16:57:00,41.2,40.1,29.91,NNE,21,0.0,0.0,96,0.00,OVC,,0.15,40.0,WeatherDisplay:10.37,2013-02-23 21:57:00,
2013-02-23 17:00:00,41.2,40.1,29.91,NNE,21,0.0,0.0,96,0.00,BKN,OVC,0.15,42.0,WeatherDisplay:10.37,2013-02-23 22:00:00,
2013-02-23 17:01:00,41.2,40.1,29.91,NNE,21,0.0,0.0,96,0.00,BKN,OVC,0.15,44.0,WeatherDisplay:10.37,2013-02-23 22:01:00,
2013-02-23 17:02:00,41.2,40.1,29.91,NNE,21,0.0,0.0,96,0.00,BKN,OVC,0.15,46.0,WeatherDisplay:10.37,2013-02-23 22:02:00,
2013-02-23 17:05:00,41.2,40.1,29.91,NNE,21,0.0,0.0,96,0.00,BKN,OVC,0.15,51.0,WeatherDisplay:10.37,2013-02-23 22:05:00,
2013-02-23 17:07:00,41.2,40.1,29.90,NNE,21,0.0,0.0,96,0.00,BKN,OVC,0.15,49.0,WeatherDisplay:10.37,2013-02-23 22:07:00,
2013-02-23 17:10:00,41.3,40.2,29.90,NNE,21,0.0,0.0,96,0.00,BKN,OVC,0.15,46.0,WeatherDisplay:10.37,2013-02-23 22:10:00,
2013-02-23 17:12:00,41.3,40.2,29.90,NNE,21,0.0,0.0,96,0.00,BKN,OVC,0.15,44.0,WeatherDisplay:10.37,2013-02-23 22:12:00,
2013-02-23 17:13:00,41.3,40.2,29.90,NNE,21,0.0,0.0,96,0.00,BKN,OVC,0.15,42.0,WeatherDisplay:10.37,2013-02-23 22:13:00,
2013-02-23 17:15:00,41.3,40.2,29.90,NNE,21,0.0,0.0,96,0.00,OVC,,0.15,40.0,WeatherDisplay:10.37,2013-02-23 22:15:00,
2013-02-23 17:16:00,41.3,40.2,29.90,NNE,21,0.0,0.0,96,0.00,OVC,,0.15,40.0,WeatherDisplay:10.37,2013-02-23 22:16:00,
2013-02-23 17:17:00,41.3,40.2,29.90,NNE,21,0.0,0.0,96,0.00,OVC,,0.15,37.0,WeatherDisplay:10.37,2013-02-23 22:17:00,
2013-02-23 17:20:00,41.3,40.2,29.90,NNE,21,0.0,0.0,96,0.00,OVC,,0.15,30.0,WeatherDisplay:10.37,2013-02-23 22:20:00,
2013-02-23 17:22:00,41.3,40.2,29.89,NNE,21,0.0,0.0,96,0.00,OVC,,0.15,28.0,WeatherDisplay:10.37,2013-02-23 22:22:00,
2013-02-23 17:24:00,41.3,40.2,29.89,NNE,21,0.0,0.0,96,0.00,OVC,,0.15,28.0,WeatherDisplay:10.37,2013-02-23 22:24:00,
2013-02-23 17:25:00,41.3,40.2,29.89,NNE,21,0.0,0.0,96,0.00,OVC,,0.15,26.0,WeatherDisplay:10.37,2013-02-23 22:25:00,
2013-02-23 17:26:00,41.3,40.2,29.89,NNE,21,0.0,0.0,96,0.00,OVC,,0.15,23.0,WeatherDisplay:10.37,2013-02-23 22:26:00,
2013-02-23 17:27:00,41.3,40.2,29.89,NNE,21,0.0,0.0,96,0.00,OVC,,0.15,23.0,WeatherDisplay:10.37,2013-02-23 22:27:00,
2013-02-23 17:29:00,41.3,40.2,29.89,NNE,21,0.0,0.0,96,0.00,OVC,,0.15,21.0,WeatherDisplay:10.37,2013-02-23 22:29:00,
2013-02-23 17:30:00,41.3,40.2,29.89,NNE,21,0.0,0.0,96,0.00,OVC,,0.15,21.0,WeatherDisplay:10.37,2013-02-23 22:30:00,
2013-02-23 17:31:00,41.3,40.2,29.89,NNE,21,0.0,0.0,96,0.00,OVC,,0.15,19.0,WeatherDisplay:10.37,2013-02-23 22:31:00,
2013-02-23 17:34:00,41.3,40.2,29.89,NNE,21,0.0,0.0,96,0.00,OVC,,0.15,18.0,WeatherDisplay:10.37,2013-02-23 22:34:00,
2013-02-23 17:35:00,41.3,40.2,29.89,NNE,21,0.0,0.0,96,0.00,OVC,,0.15,16.0,WeatherDisplay:10.37,2013-02-23 22:35:00,
2013-02-23 17:37:00,41.3,40.2,29.88,NNE,21,0.0,0.0,96,0.00,OVC,,0.15,16.0,WeatherDisplay:10.37,2013-02-23 22:37:00,
2013-02-23 17:39:00,41.3,40.5,29.88,NNE,21,0.0,0.0,97,0.00,OVC,,0.15,14.0,WeatherDisplay:10.37,2013-02-23 22:39:00,
2013-02-23 17:40:00,41.3,40.2,29.88,NNE,21,0.0,0.0,96,0.00,OVC,,0.15,12.0,WeatherDisplay:10.37,2013-02-23 22:40:00,
2013-02-23 17:41:00,41.3,40.2,29.88,NNE,21,0.0,0.0,96,0.00,OVC,,0.15,12.0,WeatherDisplay:10.37,2013-02-23 22:41:00,
2013-02-23 17:43:00,41.3,40.2,29.88,NNE,21,0.0,0.0,96,0.00,OVC,,0.15,11.0,WeatherDisplay:10.37,2013-02-23 22:43:00,
2013-02-23 17:44:00,41.3,40.2,29.88,NNE,21,0.0,0.0,96,0.00,OVC,,0.15,11.0,WeatherDisplay:10.37,2013-02-23 22:44:00,
2013-02-23 17:46:00,41.3,40.5,29.88,NNE,21,0.0,0.0,97,0.00,OVC,,0.15,9.0,WeatherDisplay:10.37,2013-02-23 22:46:00,
2013-02-23 17:47:00,41.3,40.2,29.88,NNE,21,0.0,0.0,96,0.00,OVC,,0.15,9.0,WeatherDisplay:10.37,2013-02-23 22:47:00,
2013-02-23 17:49:00,41.5,40.7,29.88,NNE,21,0.0,0.0,97,0.00,OVC,,0.15,7.0,WeatherDisplay:10.37,2013-02-23 22:49:00,
2013-02-23 17:50:00,41.5,40.7,29.88,NNE,21,0.0,0.0,97,0.00,OVC,,0.15,7.0,WeatherDisplay:10.37,2013-02-23 22:50:00,
2013-02-23 17:53:00,41.5,40.7,29.88,NNE,21,0.0,0.0,97,0.00,OVC,,0.15,5.0,WeatherDisplay:10.37,2013-02-23 22:53:00,
2013-02-23 17:55:00,41.3,40.5,29.88,NNE,21,0.0,0.0,97,0.00,OVC,,0.15,5.0,WeatherDisplay:10.37,2013-02-23 22:55:00,
2013-02-23 17:58:00,41.3,40.5,29.88,NNE,21,0.0,0.0,97,0.00,OVC,,0.15,0.0,WeatherDisplay:10.37,2013-02-23 22:58:00,
2013-02-23 18:00:00,41.3,40.5,29.88,NNE,21,0.0,0.0,97,0.00,OVC,,0.15,0.0,WeatherDisplay:10.37,2013-02-23 23:00:00,
2013-02-23 18:01:00,41.3,40.5,29.88,NNE,21,0.0,0.0,97,0.00,OVC,,0.15,0.0,WeatherDisplay:10.37,2013-02-23 23:01:00,
2013-02-23 18:02:00,41.3,40.5,29.88,NNE,21,0.0,0.0,97,0.00,OVC,,0.15,0.0,WeatherDisplay:10.37,2013-02-23 23:02:00,
2013-02-23 18:05:00,41.3,40.5,29.88,NNE,21,0.0,0.0,97,0.00,OVC,,0.15,0.0,WeatherDisplay:10.37,2013-02-23 23:05:00,
2013-02-23 18:06:00,41.3,40.5,29.88,NNE,21,0.0,0.0,97,0.00,OVC,,0.15,0.0,WeatherDisplay:10.37,2013-02-23 23:06:00,
2013-02-23 18:07:00,41.3,40.5,29.88,NNE,21,0.0,0.0,97,0.00,OVC,,0.15,0.0,WeatherDisplay:10.37,2013-02-23 23:07:00,
2013-02-23 18:08:00,41.3,40.5,29.88,NNE,21,0.0,0.0,97,0.00,OVC,,0.15,0.0,WeatherDisplay:10.37,2013-02-23 23:08:00,
2013-02-23 18:11:00,41.5,40.7,29.88,NNE,21,0.0,0.0,97,0.00,OVC,,0.15,0.0,WeatherDisplay:10.37,2013-02-23 23:11:00,
2013-02-23 18:13:00,41.5,40.7,29.88,NNE,21,0.0,0.0,97,0.00,OVC,,0.15,0.0,WeatherDisplay:10.37,2013-02-23 23:13:00,
2013-02-23 18:14:00,41.5,40.7,29.88,NNE,21,0.0,0.0,97,0.00,OVC,,0.15,0.0,WeatherDisplay:10.37,2013-02-23 23:14:00,
2013-02-23 18:18:00,41.5,40.7,29.88,NNE,21,0.0,0.0,97,0.00,OVC,,0.15,0.0,WeatherDisplay:10.37,2013-02-23 23:18:00,
2013-02-23 18:20:00,41.6,40.8,29.88,NNE,21,0.0,0.0,97,0.00,OVC,,0.15,0.0,WeatherDisplay:10.37,2013-02-23 23:20:00,
2013-02-23 18:24:00,41.6,40.8,29.88,NNE,21,0.0,0.0,97,0.00,OVC,,0.15,0.0,WeatherDisplay:10.37,2013-02-23 23:24:00,
2013-02-23 18:25:00,41.6,40.8,29.88,NNE,21,0.0,0.0,97,0.00,OVC,,0.15,0.0,WeatherDisplay:10.37,2013-02-23 23:25:00,
2013-02-23 18:26:00,41.5,40.7,29.88,NNE,21,0.0,0.0,97,0.00,OVC,,0.15,0.0,WeatherDisplay:10.37,2013-02-23 23:26:00,
2013-02-23 18:27:00,41.5,40.7,29.88,NNE,21,0.0,0.0,97,0.00,OVC,,0.15,0.0,WeatherDisplay:10.37,2013-02-23 23:27:00,
2013-02-23 18:29:00,41.5,40.7,29.88,NNE,21,0.0,0.0,97,0.00,OVC,,0.15,0.0,WeatherDisplay:10.37,2013-02-23 23:29:00,
2013-02-23 18:31:00,41.6,40.8,29.88,NNE,21,0.0,0.0,97,0.00,OVC,,0.15,0.0,WeatherDisplay:10.37,2013-02-23 23:31:00,
2013-02-23 18:32:00,41.6,40.8,29.88,NNE,21,0.0,0.0,97,0.00,OVC,,0.15,0.0,WeatherDisplay:10.37,2013-02-23 23:32:00,
2013-02-23 18:35:00,41.6,40.8,29.87,NNE,21,0.0,0.0,97,0.00,OVC,,0.15,0.0,WeatherDisplay:10.37,2013-02-23 23:35:00,
2013-02-23 18:36:00,41.6,40.8,29.87,NNE,21,0.0,0.0,97,0.00,OVC,,0.15,0.0,WeatherDisplay:10.37,2013-02-23 23:36:00,
2013-02-23 18:37:00,41.6,40.8,29.87,NNE,21,0.0,0.0,97,0.00,OVC,,0.15,0.0,WeatherDisplay:10.37,2013-02-23 23:37:00,
2013-02-23 18:38:00,41.6,40.8,29.87,NNE,21,0.0,0.0,97,0.00,OVC,,0.15,0.0,WeatherDisplay:10.37,2013-02-23 23:38:00,
2013-02-23 18:41:00,41.6,40.8,29.87,NNE,21,0.0,0.0,97,0.00,,OVC,0.15,0.0,WeatherDisplay:10.37,2013-02-23 23:41:00,
2013-02-23 18:42:00,41.6,40.8,29.87,NNE,21,0.0,0.0,97,0.00,,OVC,0.15,0.0,WeatherDisplay:10.37,2013-02-23 23:42:00,
2013-02-23 18:44:00,41.6,40.8,29.87,NNE,21,0.0,0.0,97,0.00,,OVC,0.15,0.0,WeatherDisplay:10.37,2013-02-23 23:44:00,
2013-02-23 18:47:00,41.6,40.8,29.87,NNE,21,0.0,0.0,97,0.00,,OVC,0.15,0.0,WeatherDisplay:10.37,2013-02-23 23:47:00,
2013-02-23 18:49:00,41.6,40.8,29.87,NNE,21,0.0,0.0,97,0.00,,OVC,0.15,0.0,WeatherDisplay:10.37,2013-02-23 23:49:00,
2013-02-23 18:50:00,41.6,40.8,29.87,NNE,21,0.0,0.0,97,0.00,,OVC,0.15,0.0,WeatherDisplay:10.37,2013-02-23 23:50:00,
2013-02-23 18:52:00,41.6,40.8,29.87,NNE,21,0.0,0.0,97,0.00,,OVC,0.15,0.0,WeatherDisplay:10.37,2013-02-23 23:52:00,
2013-02-23 18:54:00,41.6,40.8,29.87,NNE,21,0.0,0.0,97,0.00,,OVC,0.15,0.0,WeatherDisplay:10.37,2013-02-23 23:54:00,
2013-02-23 18:55:00,41.6,40.8,29.87,NNE,21,0.0,0.0,97,0.00,,OVC,0.15,0.0,WeatherDisplay:10.37,2013-02-23 23:55:00,
2013-02-23 18:57:00,41.5,40.7,29.87,NNE,21,2.9,4.0,97,0.00,,OVC,0.15,0.0,WeatherDisplay:10.37,2013-02-23 23:57:00,
2013-02-23 19:00:00,41.5,40.7,29.87,NNE,21,2.3,3.5,97,0.00,,OVC,0.15,0.0,WeatherDisplay:10.37,2013-02-24 00:00:00,
2013-02-23 19:03:00,41.5,40.7,29.87,NNE,21,2.0,3.5,97,0.00,,OVC,0.15,0.0,WeatherDisplay:10.37,2013-02-24 00:03:00,
2013-02-23 19:05:00,41.5,40.7,29.87,NNE,21,2.3,3.5,97,0.00,,OVC,0.15,0.0,WeatherDisplay:10.37,2013-02-24 00:05:00,
2013-02-23 19:08:00,41.5,40.7,29.87,NNE,21,2.1,3.5,97,0.00,,OVC,0.15,0.0,WeatherDisplay:10.37,2013-02-24 00:08:00,
2013-02-23 19:09:00,41.5,40.7,29.87,NNE,21,1.7,3.5,97,0.00,,OVC,0.15,0.0,WeatherDisplay:10.37,2013-02-24 00:09:00,
2013-02-23 19:10:00,41.5,40.7,29.87,NNE,21,1.4,2.3,97,0.00,,OVC,0.15,0.0,WeatherDisplay:10.37,2013-02-24 00:10:00,
2013-02-23 19:14:00,41.5,40.7,29.87,NNE,21,0.0,0.0,97,0.00,,OVC,0.15,0.0,WeatherDisplay:10.37,2013-02-24 00:14:00,
2013-02-23 19:15:00,41.5,40.7,29.87,NNE,21,0.0,0.0,97,0.00,,OVC,0.15,0.0,WeatherDisplay:10.37,2013-02-24 00:15:00,
2013-02-23 19:18:00,41.5,41.0,29.87,NNE,21,0.0,0.0,98,0.00,,OVC,0.15,0.0,WeatherDisplay:10.37,2013-02-24 00:18:00,
2013-02-23 19:19:00,41.5,40.7,29.87,NNE,21,0.0,0.0,97,0.00,,OVC,0.15,0.0,WeatherDisplay:10.37,2013-02-24 00:19:00,
2013-02-23 19:20:00,41.5,40.7,29.87,NNE,21,0.0,0.0,97,0.00,,OVC,0.15,0.0,WeatherDisplay:10.37,2013-02-24 00:20:00,
2013-02-23 19:21:00,41.5,40.7,29.87,NNE,21,0.0,0.0,97,0.00,,OVC,0.15,0.0,WeatherDisplay:10.37,2013-02-24 00:21:00,
2013-02-23 19:24:00,41.5,41.0,29.87,NNE,21,3.1,4.0,98,0.00,,OVC,0.15,0.0,WeatherDisplay:10.37,2013-02-24 00:24:00,
2013-02-23 19:26:00,41.5,41.0,29.86,NNE,21,3.1,3.5,98,0.00,,OVC,0.15,0.0,WeatherDisplay:10.37,2013-02-24 00:26:00,
2013-02-23 19:27:00,41.5,41.0,29.86,NNE,21,3.0,3.5,98,0.00,,OVC,0.15,0.0,WeatherDisplay:10.37,2013-02-24 00:27:00,
2013-02-23 19:30:00,41.5,41.0,29.86,NNE,21,3.7,4.0,98,0.00,,OVC,0.15,0.0,WeatherDisplay:10.37,2013-02-24 00:30:00,
2013-02-23 19:31:00,41.5,41.0,29.86,NNE,21,3.2,3.5,98,0.00,,OVC,0.15,0.0,WeatherDisplay:10.37,2013-02-24 00:31:00,
2013-02-23 19:33:00,41.5,41.0,29.86,NNE,21,2.4,3.5,98,0.00,,OVC,0.15,0.0,WeatherDisplay:10.37,2013-02-24 00:33:00,
2013-02-23 19:35:00,41.5,41.0,29.87,NNE,21,2.2,3.5,98,0.00,,OVC,0.15,0.0,WeatherDisplay:10.37,2013-02-24 00:35:00,
2013-02-23 19:38:00,41.5,41.0,29.87,NNE,21,1.5,3.5,98,0.00,,OVC,0.15,0.0,WeatherDisplay:10.37,2013-02-24 00:38:00,
2013-02-23 19:40:00,41.5,41.0,29.87,NNE,21,0.3,2.3,98,0.00,,OVC,0.15,0.0,WeatherDisplay:10.37,2013-02-24 00:40:00,
2013-02-23 19:42:00,41.5,41.0,29.87,NNE,21,0.0,0.0,98,0.00,,OVC,0.15,0.0,WeatherDisplay:10.37,2013-02-24 00:42:00,
2013-02-23 19:43:00,41.5,41.0,29.87,NNE,21,0.0,0.0,98,0.00,,OVC,0.15,0.0,WeatherDisplay:10.37,2013-02-24 00:43:00,
2013-02-23 19:45:00,41.5,41.0,29.87,NNE,21,0.0,0.0,98,0.00,,OVC,0.15,0.0,WeatherDisplay:10.37,2013-02-24 00:45:00,
2013-02-23 19:48:00,41.5,41.0,29.87,NNE,21,0.0,0.0,98,0.00,,OVC,0.15,0.0,WeatherDisplay:10.37,2013-02-24 00:48:00,
2013-02-23 19:50:00,41.5,41.0,29.87,NNE,21,0.0,0.0,98,0.00,,OVC,0.15,0.0,WeatherDisplay:10.37,2013-02-24 00:50:00,
2013-02-23 19:51:00,41.5,41.0,29.88,NNE,21,0.0,0.0,98,0.00,,OVC,0.15,0.0,WeatherDisplay:10.37,2013-02-24 00:51:00,
2013-02-23 19:53:00,41.5,41.0,29.88,NNE,21,0.0,0.0,98,0.00,,OVC,0.15,0.0,WeatherDisplay:10.37,2013-02-24 00:53:00,
2013-02-23 19:57:00,41.5,41.0,29.88,NNE,21,0.0,0.0,98,0.00,,OVC,0.15,0.0,WeatherDisplay:10.37,2013-02-24 00:57:00,
2013-02-23 19:58:00,41.5,41.0,29.88,NNE,21,0.0,0.0,98,0.00,,OVC,0.15,0.0,WeatherDisplay:10.37,2013-02-24 00:58:00,
2013-02-23 19:59:00,41.5,41.0,29.88,NNE,21,0.0,0.0,98,0.00,,OVC,0.15,0.0,WeatherDisplay:10.37,2013-02-24 00:59:00,
2013-02-23 20:00:00,41.5,41.0,29.88,NNE,21,0.0,0.0,98,0.00,,OVC,0.15,0.0,WeatherDisplay:10.37,2013-02-24 01:00:00,
2013-02-23 20:02:00,41.5,41.0,29.88,NNE,21,0.0,0.0,98,0.00,,OVC,0.15,0.0,WeatherDisplay:10.37,2013-02-24 01:02:00,
2013-02-23 20:03:00,41.3,40.8,29.88,NNE,21,0.0,0.0,98,0.00,,OVC,0.15,0.0,WeatherDisplay:10.37,2013-02-24 01:03:00,
2013-02-23 20:07:00,41.5,41.0,29.86,NNE,21,0.0,0.0,98,0.00,,OVC,0.15,0.0,WeatherDisplay:10.37,2013-02-24 01:07:00,
2013-02-23 20:08:00,41.3,40.8,29.86,NNE,21,3.3,4.0,98,0.00,,OVC,0.15,0.0,WeatherDisplay:10.37,2013-02-24 01:08:00,
2013-02-23 20:09:00,41.3,40.8,29.86,NNE,21,2.8,3.5,98,0.00,,OVC,0.15,0.0,WeatherDisplay:10.37,2013-02-24 01:09:00,
2013-02-23 20:12:00,41.3,40.8,29.86,NNE,21,1.6,2.3,98,0.00,,OVC,0.15,0.0,WeatherDisplay:10.37,2013-02-24 01:12:00,
2013-02-23 20:14:00,41.3,40.8,29.86,NNE,21,2.2,3.5,98,0.00,,OVC,0.15,0.0,WeatherDisplay:10.37,2013-02-24 01:14:00,
2013-02-23 20:17:00,41.3,40.8,29.86,NNE,21,2.4,3.0,98,0.00,,OVC,0.15,0.0,WeatherDisplay:10.37,2013-02-24 01:17:00,
2013-02-23 20:18:00,41.3,40.8,29.86,NNE,21,2.9,3.5,98,0.00,,OVC,0.15,0.0,WeatherDisplay:10.37,2013-02-24 01:18:00,
2013-02-23 20:19:00,41.3,40.8,29.88,NNE,21,2.8,3.5,98,0.00,,OVC,0.15,0.0,WeatherDisplay:10.37,2013-02-24 01:19:00,
2013-02-23 20:20:00,41.3,40.8,29.88,NNE,21,2.4,3.5,98,0.00,,OVC,0.15,0.0,WeatherDisplay:10.37,2013-02-24 01:20:00,
2013-02-23 20:22:00,41.3,40.8,29.88,NNE,21,3.4,3.5,98,0.00,,OVC,0.15,0.0,WeatherDisplay:10.37,2013-02-24 01:22:00,
2013-02-23 20:23:00,41.3,40.8,29.88,NNE,21,3.3,3.5,98,0.00,,OVC,0.15,0.0,WeatherDisplay:10.37,2013-02-24 01:23:00,
2013-02-23 20:25:00,41.3,40.8,29.88,NNE,21,2.6,3.5,98,0.00,,OVC,0.15,0.0,WeatherDisplay:10.37,2013-02-24 01:25:00,
2013-02-23 20:27:00,41.2,40.7,29.88,NNE,21,2.6,3.5,98,0.00,,OVC,0.15,0.0,WeatherDisplay:10.37,2013-02-24 01:27:00,
2013-02-23 20:29:00,41.2,40.7,29.88,NNE,21,2.6,3.5,98,0.00,,OVC,0.15,0.0,WeatherDisplay:10.37,2013-02-24 01:29:00,
2013-02-23 20:30:00,41.3,40.8,29.88,NNE,21,2.3,3.5,98,0.00,,OVC,0.15,0.0,WeatherDisplay:10.37,2013-02-24 01:30:00,
2013-02-23 20:31:00,41.3,40.8,29.88,NNE,21,3.8,5.0,98,0.00,,OVC,0.15,0.0,WeatherDisplay:10.37,2013-02-24 01:31:00,
2013-02-23 20:32:00,41.3,40.8,29.88,NNE,21,4.9,6.0,98,0.00,,OVC,0.15,0.0,WeatherDisplay:10.37,2013-02-24 01:32:00,
2013-02-23 20:37:00,41.2,40.7,29.87,NNE,21,0.5,2.3,98,0.00,,OVC,0.15,0.0,WeatherDisplay:10.37,2013-02-24 01:37:00,
2013-02-23 20:38:00,41.2,40.7,29.87,NNE,21,0.0,2.3,98,0.00,,OVC,0.15,0.0,WeatherDisplay:10.37,2013-02-24 01:38:00,
2013-02-23 20:42:00,41.2,40.7,29.87,NNE,21,1.9,3.5,98,0.00,,OVC,0.15,0.0,WeatherDisplay:10.37,2013-02-24 01:42:00,
2013-02-23 20:47:00,41.2,40.7,29.87,NNE,21,1.9,3.5,98,0.00,,OVC,0.15,0.0,WeatherDisplay:10.37,2013-02-24 01:47:00,
2013-02-23 20:48:00,41.2,40.7,29.87,NNE,21,2.7,3.5,98,0.00,,OVC,0.15,0.0,WeatherDisplay:10.37,2013-02-24 01:48:00,
2013-02-23 20:49:00,41.2,40.7,29.87,NNE,21,2.4,3.5,98,0.00,,OVC,0.15,0.0,WeatherDisplay:10.37,2013-02-24 01:49:00,
2013-02-23 20:52:00,41.3,40.8,29.87,NNE,21,2.4,3.5,98,0.00,,OVC,0.15,0.0,WeatherDisplay:10.37,2013-02-24 01:52:00,
2013-02-23 20:53:00,41.3,40.8,29.87,NNE,21,1.6,3.5,98,0.00,,OVC,0.15,0.0,WeatherDisplay:10.37,2013-02-24 01:53:00,
2013-02-23 20:55:00,41.3,40.8,29.87,NNE,21,2.5,3.5,98,0.00,,OVC,0.15,0.0,WeatherDisplay:10.37,2013-02-24 01:55:00,
2013-02-23 20:58:00,41.3,40.8,29.87,NNE,21,2.3,3.5,98,0.00,,OVC,0.15,0.0,WeatherDisplay:10.37,2013-02-24 01:58:00,
2013-02-23 21:01:00,41.3,40.8,29.87,NNE,21,0.0,0.0,98,0.00,,OVC,0.15,0.0,WeatherDisplay:10.37,2013-02-24 02:01:00,
2013-02-23 21:02:00,41.3,40.8,29.87,NNE,21,0.0,0.0,98,0.00,,OVC,0.15,0.0,WeatherDisplay:10.37,2013-02-24 02:02:00,
2013-02-23 21:03:00,41.3,40.8,29.87,NNE,21,0.0,0.0,98,0.00,,OVC,0.15,0.0,WeatherDisplay:10.37,2013-02-24 02:03:00,
2013-02-23 21:06:00,41.3,40.8,29.87,NNE,21,0.5,2.3,98,0.00,,OVC,0.15,0.0,WeatherDisplay:10.37,2013-02-24 02:06:00,
2013-02-23 21:09:00,41.3,40.8,29.87,NNE,21,0.0,0.0,98,0.00,,OVC,0.15,0.0,WeatherDisplay:10.37,2013-02-24 02:09:00,
2013-02-23 21:10:00,41.3,40.8,29.87,NNE,21,0.0,0.0,98,0.00,,OVC,0.15,0.0,WeatherDisplay:10.37,2013-02-24 02:10:00,
2013-02-23 21:11:00,41.3,41.0,29.87,NNE,21,0.0,0.0,99,0.00,,OVC,0.15,0.0,WeatherDisplay:10.37,2013-02-24 02:11:00,
2013-02-23 21:15:00,41.3,41.0,29.87,NNE,21,0.0,3.0,99,0.00,,OVC,0.15,0.0,WeatherDisplay:10.37,2013-02-24 02:15:00,
2013-02-23 21:17:00,41.3,41.0,29.87,NNE,21,1.7,3.5,99,0.00,,OVC,0.15,0.0,WeatherDisplay:10.37,2013-02-24 02:17:00,
2013-02-23 21:18:00,41.3,41.0,29.87,NNE,21,0.0,0.0,99,0.00,,OVC,0.15,0.0,WeatherDisplay:10.37,2013-02-24 02:18:00,
2013-02-23 21:20:00,41.3,41.0,29.86,NNE,21,3.5,4.0,99,0.00,,OVC,0.15,0.0,WeatherDisplay:10.37,2013-02-24 02:20:00,
2013-02-23 21:21:00,41.3,41.0,29.86,NNE,21,4.4,5.0,99,0.00,,OVC,0.15,0.0,WeatherDisplay:10.37,2013-02-24 02:21:00,
2013-02-23 21:23:00,41.5,41.2,29.86,NNE,21,3.2,4.6,99,0.00,,OVC,0.15,0.0,WeatherDisplay:10.37,2013-02-24 02:23:00,
2013-02-23 21:24:00,41.5,41.2,29.86,NNE,21,1.8,4.6,99,0.00,,OVC,0.15,0.0,WeatherDisplay:10.37,2013-02-24 02:24:00,
2013-02-23 21:26:00,41.5,41.2,29.86,NNE,21,0.0,0.0,99,0.00,,OVC,0.15,0.0,WeatherDisplay:10.37,2013-02-24 02:26:00,
2013-02-23 21:27:00,41.5,41.2,29.86,NNE,21,0.7,3.5,99,0.00,,OVC,0.15,0.0,WeatherDisplay:10.37,2013-02-24 02:27:00,
2013-02-23 21:28:00,41.5,41.2,29.86,NNE,26,3.1,4.0,99,0.00,,OVC,0.15,0.0,WeatherDisplay:10.37,2013-02-24 02:28:00,
2013-02-23 21:29:00,41.5,41.2,29.86,NE,46,4.2,5.0,99,0.00,,OVC,0.15,0.0,WeatherDisplay:10.37,2013-02-24 02:29:00,
2013-02-23 21:31:00,41.6,41.3,29.86,ESE,105,4.5,5.8,99,0.00,,OVC,0.15,0.0,WeatherDisplay:10.37,2013-02-24 02:31:00,
2013-02-23 21:35:00,41.6,41.3,29.86,ESE,109,2.7,3.5,99,0.00,,OVC,0.15,0.0,WeatherDisplay:10.37,2013-02-24 02:35:00,
2013-02-23 21:37:00,41.6,41.3,29.86,ESE,109,1.7,2.3,99,0.00,,OVC,0.15,0.0,WeatherDisplay:10.37,2013-02-24 02:37:00,
2013-02-23 21:41:00,41.6,41.3,29.86,ESE,109,2.3,3.5,99,0.00,,OVC,0.15,0.0,WeatherDisplay:10.37,2013-02-24 02:41:00,
2013-02-23 21:43:00,41.6,41.3,29.86,ESE,109,2.0,3.5,99,0.00,,OVC,0.15,0.0,WeatherDisplay:10.37,2013-02-24 02:43:00,
2013-02-23 21:47:00,41.6,41.3,29.86,ESE,109,3.4,4.6,99,0.00,,OVC,0.15,0.0,WeatherDisplay:10.37,2013-02-24 02:47:00,
2013-02-23 21:49:00,41.6,41.3,29.85,ESE,109,3.0,3.5,99,0.00,,OVC,0.15,0.0,WeatherDisplay:10.37,2013-02-24 02:49:00,
2013-02-23 21:53:00,41.6,41.3,29.85,ESE,109,0.0,0.0,99,0.00,,OVC,0.15,0.0,WeatherDisplay:10.37,2013-02-24 02:53:00,
2013-02-23 21:54:00,41.6,41.3,29.85,ESE,109,0.0,0.0,99,0.00,,OVC,0.15,0.0,WeatherDisplay:10.37,2013-02-24 02:54:00,
2013-02-23 21:55:00,41.6,41.3,29.85,ESE,109,0.0,0.0,99,0.00,,OVC,0.15,0.0,WeatherDisplay:10.37,2013-02-24 02:55:00,
2013-02-23 21:58:00,41.6,41.3,29.85,ESE,109,2.4,3.5,99,0.00,,OVC,0.15,0.0,WeatherDisplay:10.37,2013-02-24 02:58:00,
2013-02-23 22:00:00,41.6,41.3,29.85,ESE,109,1.0,5.0,99,0.00,,OVC,0.15,0.0,WeatherDisplay:10.37,2013-02-24 03:00:00,
2013-02-23 22:03:00,41.6,41.3,29.85,ESE,109,2.9,3.5,99,0.00,,OVC,0.15,0.0,WeatherDisplay:10.37,2013-02-24 03:03:00,
2013-02-23 22:04:00,41.6,41.3,29.86,ESE,109,2.6,3.5,99,0.00,,OVC,0.15,0.0,WeatherDisplay:10.37,2013-02-24 03:04:00,
2013-02-23 22:05:00,41.6,41.3,29.86,ESE,109,2.7,3.5,99,0.00,,OVC,0.15,0.0,WeatherDisplay:10.37,2013-02-24 03:05:00,
2013-02-23 22:07:00,41.5,41.2,29.86,ESE,109,4.7,6.0,99,0.00,,OVC,0.15,0.0,WeatherDisplay:10.37,2013-02-24 03:07:00,
2013-02-23 22:08:00,41.5,41.2,29.86,ESE,109,5.5,6.0,99,0.00,,OVC,0.15,0.0,WeatherDisplay:10.37,2013-02-24 03:08:00,
2013-02-23 22:09:00,41.5,41.2,29.86,ESE,109,5.5,6.9,99,0.00,,OVC,0.15,0.0,WeatherDisplay:10.37,2013-02-24 03:09:00,
2013-02-23 22:10:00,41.5,41.2,29.86,ESE,109,5.4,6.0,99,0.00,,OVC,0.15,0.0,WeatherDisplay:10.37,2013-02-24 03:10:00,
2013-02-23 22:12:00,41.5,41.2,29.86,ESE,109,4.9,6.0,99,0.00,,OVC,0.15,0.0,WeatherDisplay:10.37,2013-02-24 03:12:00,
2013-02-23 22:14:00,41.6,41.3,29.86,ESE,109,5.2,6.9,99,0.00,,OVC,0.15,0.0,WeatherDisplay:10.37,2013-02-24 03:14:00,
2013-02-23 22:17:00,41.6,41.3,29.86,ESE,109,3.8,4.6,99,0.00,,OVC,0.15,0.0,WeatherDisplay:10.37,2013-02-24 03:17:00,
2013-02-23 22:20:00,41.6,41.3,29.86,ESE,109,1.3,3.5,99,0.00,,OVC,0.15,0.0,WeatherDisplay:10.37,2013-02-24 03:20:00,
2013-02-23 22:22:00,41.6,41.3,29.86,ESE,109,2.7,3.5,99,0.00,,OVC,0.15,0.0,WeatherDisplay:10.37,2013-02-24 03:22:00,
2013-02-23 22:23:00,41.6,41.3,29.86,ESE,109,2.9,4.0,99,0.00,,OVC,0.15,0.0,WeatherDisplay:10.37,2013-02-24 03:23:00,
2013-02-23 22:27:00,41.8,41.5,29.86,ESE,109,0.0,3.5,99,0.00,,OVC,0.15,0.0,WeatherDisplay:10.37,2013-02-24 03:27:00,
2013-02-23 22:28:00,41.8,41.5,29.86,ESE,109,0.0,0.0,99,0.00,,OVC,0.15,0.0,WeatherDisplay:10.37,2013-02-24 03:28:00,
2013-02-23 22:29:00,41.8,41.5,29.86,ESE,109,1.0,4.0,99,0.00,,OVC,0.15,0.0,WeatherDisplay:10.37,2013-02-24 03:29:00,
2013-02-23 22:33:00,41.8,41.5,29.87,ESE,119,3.9,4.6,99,0.00,,OVC,0.15,0.0,WeatherDisplay:10.37,2013-02-24 03:33:00,
2013-02-23 22:34:00,41.8,41.5,29.87,ESE,119,3.4,3.5,99,0.00,,OVC,0.15,0.0,WeatherDisplay:10.37,2013-02-24 03:34:00,
2013-02-23 22:36:00,41.8,41.5,29.87,ESE,119,2.3,3.5,99,0.00,,OVC,0.15,0.0,WeatherDisplay:10.37,2013-02-24 03:36:00,
2013-02-23 22:39:00,41.8,41.5,29.87,ESE,119,0.0,0.0,99,0.00,,OVC,0.15,0.0,WeatherDisplay:10.37,2013-02-24 03:39:00,
2013-02-23 22:41:00,41.8,41.5,29.87,ESE,119,0.0,0.0,99,0.00,,OVC,0.15,0.0,WeatherDisplay:10.37,2013-02-24 03:41:00,
2013-02-23 22:43:00,41.8,41.5,29.87,ESE,118,0.0,0.0,99,0.00,,OVC,0.15,0.0,WeatherDisplay:10.37,2013-02-24 03:43:00,
2013-02-23 22:45:00,41.8,41.5,29.87,ESE,119,0.0,0.0,99,0.00,,OVC,0.15,0.0,WeatherDisplay:10.37,2013-02-24 03:45:00,
2013-02-23 22:46:00,41.8,41.5,29.87,ESE,119,0.0,0.0,99,0.00,,OVC,0.15,0.0,WeatherDisplay:10.37,2013-02-24 03:46:00,
2013-02-23 22:48:00,41.8,41.5,29.87,ESE,119,0.0,0.0,99,0.00,,OVC,0.15,0.0,WeatherDisplay:10.37,2013-02-24 03:48:00,
2013-02-23 22:49:00,41.8,41.5,29.87,ESE,119,0.0,0.0,99,0.00,,OVC,0.15,0.0,WeatherDisplay:10.37,2013-02-24 03:49:00,
2013-02-23 22:53:00,41.8,41.5,29.84,ESE,119,0.0,0.0,99,0.00,,OVC,0.15,0.0,WeatherDisplay:10.37,2013-02-24 03:53:00,
2013-02-23 22:54:00,41.8,41.5,29.84,ESE,119,2.0,3.5,99,0.00,,OVC,0.15,0.0,WeatherDisplay:10.37,2013-02-24 03:54:00,
2013-02-23 22:57:00,41.9,41.6,29.84,ESE,119,3.9,4.0,99,0.00,,OVC,0.15,0.0,WeatherDisplay:10.37,2013-02-24 03:57:00,
2013-02-23 22:58:00,41.9,41.6,29.84,ESE,119,3.7,4.6,99,0.00,,OVC,0.15,0.0,WeatherDisplay:10.37,2013-02-24 03:58:00,
2013-02-23 22:59:00,41.9,41.6,29.84,ESE,119,3.6,4.6,99,0.00,,OVC,0.15,0.0,WeatherDisplay:10.37,2013-02-24 03:59:00,
2013-02-23 23:03:00,41.9,41.6,29.84,ESE,119,0.0,0.0,99,0.00,,OVC,0.15,0.0,WeatherDisplay:10.37,2013-02-24 04:03:00,
2013-02-23 23:05:00,41.9,41.6,29.86,ESE,119,0.0,0.0,99,0.00,,OVC,0.15,0.0,WeatherDisplay:10.37,2013-02-24 04:05:00,
2013-02-23 23:07:00,41.9,41.6,29.86,ESE,119,0.0,0.0,99,0.00,,OVC,0.15,0.0,WeatherDisplay:10.37,2013-02-24 04:07:00,
2013-02-23 23:11:00,41.9,41.6,29.86,ESE,119,2.2,3.5,99,0.00,,OVC,0.15,0.0,WeatherDisplay:10.37,2013-02-24 04:11:00,
2013-02-23 23:12:00,41.9,41.6,29.86,ESE,119,2.5,4.0,99,0.00,,OVC,0.15,0.0,WeatherDisplay:10.37,2013-02-24 04:12:00,
2013-02-23 23:13:00,41.9,41.6,29.86,ESE,119,3.3,3.5,99,0.00,,OVC,0.15,0.0,WeatherDisplay:10.37,2013-02-24 04:13:00,
2013-02-23 23:17:00,41.9,41.6,29.86,ESE,119,3.8,4.6,99,0.00,,OVC,0.15,0.0,WeatherDisplay:10.37,2013-02-24 04:17:00,
2013-02-23 23:18:00,41.9,41.6,29.86,ESE,119,3.7,4.6,99,0.00,,OVC,0.15,0.0,WeatherDisplay:10.37,2013-02-24 04:18:00,
2013-02-23 23:19:00,41.9,41.6,29.85,ESE,119,3.4,4.6,99,0.00,,OVC,0.15,0.0,WeatherDisplay:10.37,2013-02-24 04:19:00,
2013-02-23 23:23:00,41.9,41.6,29.85,ESE,119,2.7,4.0,99,0.00,,OVC,0.15,0.0,WeatherDisplay:10.37,2013-02-24 04:23:00,
2013-02-23 23:24:00,41.9,41.6,29.85,ESE,119,3.0,3.5,99,0.00,,OVC,0.15,0.0,WeatherDisplay:10.37,2013-02-24 04:24:00,
2013-02-23 23:25:00,41.9,41.6,29.85,ESE,119,3.0,3.5,99,0.00,,OVC,0.15,0.0,WeatherDisplay:10.37,2013-02-24 04:25:00,
2013-02-23 23:26:00,41.9,41.6,29.85,ESE,119,2.7,3.5,99,0.00,,OVC,0.15,0.0,WeatherDisplay:10.37,2013-02-24 04:26:00,
2013-02-23 23:28:00,41.9,41.6,29.85,ESE,119,2.3,3.5,99,0.00,,OVC,0.15,0.0,WeatherDisplay:10.37,2013-02-24 04:28:00,
2013-02-23 23:29:00,41.9,41.6,29.85,ESE,119,1.9,3.5,99,0.00,,OVC,0.15,0.0,WeatherDisplay:10.37,2013-02-24 04:29:00,
2013-02-23 23:30:00,41.9,41.6,29.85,ESE,119,2.0,3.5,99,0.00,,OVC,0.15,0.0,WeatherDisplay:10.37,2013-02-24 04:30:00,
2013-02-23 23:31:00,41.9,41.6,29.85,ESE,119,3.3,4.0,99,0.00,,OVC,0.15,0.0,WeatherDisplay:10.37,2013-02-24 04:31:00,
2013-02-23 23:35:00,41.9,41.6,29.85,ESE,119,0.0,0.0,99,0.00,,OVC,0.15,0.0,WeatherDisplay:10.37,2013-02-24 04:35:00,
2013-02-23 23:36:00,41.9,41.6,29.85,ESE,119,1.3,3.5,99,0.00,,OVC,0.15,0.0,WeatherDisplay:10.37,2013-02-24 04:36:00,
2013-02-23 23:38:00,41.9,41.6,29.85,ESE,119,2.8,3.5,99,0.00,,OVC,0.15,0.0,WeatherDisplay:10.37,2013-02-24 04:38:00,
2013-02-23 23:40:00,41.9,41.6,29.85,ESE,118,3.1,3.5,99,0.00,,OVC,0.15,0.0,WeatherDisplay:10.37,2013-02-24 04:40:00,
2013-02-23 23:41:00,41.9,41.6,29.85,ESE,119,3.1,4.0,99,0.00,,OVC,0.15,0.0,WeatherDisplay:10.37,2013-02-24 04:41:00,
2013-02-23 23:45:00,42.1,41.8,29.85,ESE,119,4.4,5.8,99,0.00,,OVC,0.15,0.0,WeatherDisplay:10.37,2013-02-24 04:45:00,
2013-02-23 23:46:00,42.1,41.8,29.85,ESE,119,4.2,5.0,99,0.00,,OVC,0.15,0.0,WeatherDisplay:10.37,2013-02-24 04:46:00,
2013-02-23 23:47:00,42.1,41.8,29.85,ESE,119,4.1,4.6,99,0.00,,OVC,0.15,0.0,WeatherDisplay:10.37,2013-02-24 04:47:00,
2013-02-23 23:50:00,42.1,41.8,29.85,ESE,119,3.8,4.6,99,0.00,,OVC,0.15,0.0,WeatherDisplay:10.37,2013-02-24 04:50:00,
2013-02-23 23:51:00,42.1,41.8,29.85,ESE,119,3.4,4.0,99,0.00,,OVC,0.15,0.0,WeatherDisplay:10.37,2013-02-24 04:51:00,
2013-02-23 23:54:00,42.1,41.8,29.85,ESE,119,4.5,6.0,99,0.00,,OVC,0.15,0.0,WeatherDisplay:10.37,2013-02-24 04:54:00,
2013-02-23 23:55:00,41.9,41.6,29.85,ESE,119,4.7,5.8,99,0.00,,OVC,0.15,0.0,WeatherDisplay:10.37,2013-02-24 04:55:00,